EVA5 KLAX-RCTP

Flight info

Callsign EVA5
Flight time N/A
Altitude 30000
Route SUMMR2 SCTRR DCT PYE J143 ENI DCT BOXER DCT FULMR DCT 45N130W 48N140W 51N150W 53N160W/N0478F320 DCT RADIC DCT 5430N17800W DCT ONEIL DCT NIKLL/N0484F330 R220 NUZAN/N0478F340 R220 NUBDA/N0488F350 R220 NANAC/N0480F340 R220 IXE Y88 DAIGO/N0477F360 Y88 SWING Y121 LABEL Y50 HKC A1 DRAKE DRAKE1B
Aircraft B772/H-SDE1E2E3FGHIJ1J2J3J4J5KLM1OP1P3RUVWXY/LB1D1

Departure

Time 2026-04-21 05:21
Airport Los Angeles International Airport (KLAX)

Arrival

Time N/A
Airport Taiwan Taoyuan International Airport (RCTP)
Time Latitude Longitude Altitude Speed Heading
2026-04-21 04:02 33.94178 -118.41097 138 ft 0 kts 83°
2026-04-21 05:09 33.94176 -118.41110 138 ft 2 kts 83°
2026-04-21 05:09 33.94175 -118.41128 138 ft 2 kts 83°
2026-04-21 05:10 33.94173 -118.41145 137 ft 2 kts 83°
2026-04-21 05:10 33.94171 -118.41164 136 ft 2 kts 78°
2026-04-21 05:10 33.94165 -118.41180 135 ft 2 kts 53°
2026-04-21 05:10 33.94155 -118.41193 135 ft 2 kts 33°
2026-04-21 05:11 33.94141 -118.41201 135 ft 2 kts 13°
2026-04-21 05:11 33.94127 -118.41202 135 ft 1 kts 353°
2026-04-21 05:11 33.94112 -118.41200 136 ft 2 kts 352°
2026-04-21 05:11 33.94104 -118.41199 136 ft 0 kts 354°
2026-04-21 05:15 33.94123 -118.41201 135 ft 7 kts 354°
2026-04-21 05:15 33.94214 -118.41215 136 ft 16 kts 353°
2026-04-21 05:15 33.94327 -118.41232 135 ft 16 kts 353°
2026-04-21 05:16 33.94437 -118.41248 135 ft 15 kts 353°
2026-04-21 05:16 33.94539 -118.41262 135 ft 14 kts 354°
2026-04-21 05:16 33.94633 -118.41277 135 ft 13 kts 353°
2026-04-21 05:16 33.94722 -118.41289 135 ft 12 kts 354°
2026-04-21 05:17 33.94787 -118.41251 136 ft 11 kts 56°
2026-04-21 05:17 33.94812 -118.41124 136 ft 20 kts 83°
2026-04-21 05:17 33.94833 -118.40923 136 ft 26 kts 83°
2026-04-21 05:17 33.94852 -118.40713 134 ft 25 kts 82°
2026-04-21 05:18 33.94874 -118.40508 132 ft 24 kts 83°
2026-04-21 05:18 33.94892 -118.40308 131 ft 23 kts 82°
2026-04-21 05:18 33.94916 -118.40121 129 ft 22 kts 83°
2026-04-21 05:18 33.94934 -118.39965 126 ft 8 kts 71°
2026-04-21 05:19 33.94942 -118.39947 125 ft 0 kts 57°
2026-04-21 05:19 33.94942 -118.39946 125 ft 0 kts 57°
2026-04-21 05:19 33.94949 -118.39938 125 ft 1 kts 43°
2026-04-21 05:19 33.94976 -118.39923 124 ft 9 kts 17°
2026-04-21 05:20 33.95038 -118.39977 124 ft 16 kts 266°
2026-04-21 05:20 33.95028 -118.40084 125 ft 34 kts 265°
2026-04-21 05:20 33.94974 -118.40621 134 ft 95 kts 263°
2026-04-21 05:20 33.94865 -118.41650 134 ft 150 kts 264°
2026-04-21 05:21 33.94717 -118.43083 150 ft 191 kts 262°
2026-04-21 05:21 33.94526 -118.44659 748 ft 188 kts 260°
2026-04-21 05:21 33.94353 -118.46275 1185 ft 205 kts 265°
2026-04-21 05:21 33.94366 -118.48018 1830 ft 214 kts 270°
2026-04-21 05:22 33.94304 -118.49828 2572 ft 219 kts 265°
2026-04-21 05:22 33.94194 -118.51666 3281 ft 227 kts 264°
2026-04-21 05:22 33.94039 -118.53597 3998 ft 235 kts 264°
2026-04-21 05:22 33.93857 -118.55653 4405 ft 257 kts 263°
2026-04-21 05:23 33.93694 -118.57802 5209 ft 262 kts 264°
2026-04-21 05:23 33.93522 -118.60030 5864 ft 273 kts 263°
2026-04-21 05:23 33.93335 -118.62313 6685 ft 277 kts 263°
2026-04-21 05:23 33.93156 -118.64553 7590 ft 264 kts 262°
2026-04-21 05:24 33.92974 -118.66770 7832 ft 274 kts 261°
2026-04-21 05:24 33.92784 -118.69089 8160 ft 279 kts 262°
2026-04-21 05:24 33.92604 -118.71390 8767 ft 274 kts 261°
2026-04-21 05:24 33.92387 -118.73658 9273 ft 272 kts 261°
2026-04-21 05:25 33.92223 -118.75956 9621 ft 276 kts 261°
2026-04-21 05:25 33.92056 -118.78273 9932 ft 281 kts 261°
2026-04-21 05:25 33.91855 -118.80620 10328 ft 283 kts 260°
2026-04-21 05:25 33.91660 -118.83012 10607 ft 292 kts 261°
2026-04-21 05:26 33.91615 -118.85523 10603 ft 311 kts 269°
2026-04-21 05:26 33.91771 -118.88170 10895 ft 318 kts 270°
2026-04-21 05:26 33.91884 -118.90858 11067 ft 328 kts 268°
2026-04-21 05:26 33.91969 -118.93657 11375 ft 335 kts 268°
2026-04-21 05:27 33.92021 -118.96415 11965 ft 332 kts 268°
2026-04-21 05:27 33.92134 -118.99177 12512 ft 331 kts 270°
2026-04-21 05:27 33.92455 -119.01976 12825 ft 340 kts 277°
2026-04-21 05:27 33.93106 -119.04730 13115 ft 349 kts 286°
2026-04-21 05:28 33.94140 -119.07420 13516 ft 356 kts 295°
2026-04-21 05:28 33.95606 -119.09882 13741 ft 369 kts 304°
2026-04-21 05:28 33.97244 -119.12370 13714 ft 383 kts 301°
2026-04-21 05:28 33.98800 -119.15071 13935 ft 389 kts 299°
2026-04-21 05:29 34.00396 -119.17725 14260 ft 397 kts 306°
2026-04-21 05:29 34.02371 -119.20183 14345 ft 413 kts 314°
2026-04-21 05:29 34.04696 -119.22319 14571 ft 423 kts 322°
2026-04-21 05:29 34.07152 -119.24308 15131 ft 421 kts 322°
2026-04-21 05:30 34.09579 -119.26286 15715 ft 418 kts 322°
2026-04-21 05:30 34.11963 -119.28236 16069 ft 420 kts 321°
2026-04-21 05:30 34.14357 -119.30242 16258 ft 427 kts 321°
2026-04-21 05:30 34.16813 -119.32324 16505 ft 432 kts 321°
2026-04-21 05:31 34.19280 -119.34399 16862 ft 434 kts 321°
2026-04-21 05:31 34.21749 -119.36530 17301 ft 433 kts 320°
2026-04-21 05:31 34.24229 -119.38641 17686 ft 434 kts 321°
2026-04-21 05:31 34.26712 -119.40762 17974 ft 437 kts 320°
2026-04-21 05:32 34.29214 -119.42918 18237 ft 441 kts 320°
2026-04-21 05:32 34.31739 -119.45108 18600 ft 442 kts 320°
2026-04-21 05:32 34.34266 -119.47302 18965 ft 443 kts 320°
2026-04-21 05:32 34.36784 -119.49489 19326 ft 444 kts 320°
2026-04-21 05:33 34.39288 -119.51664 19665 ft 445 kts 320°
2026-04-21 05:33 34.41848 -119.53892 20044 ft 445 kts 319°
2026-04-21 05:33 34.44305 -119.56180 20345 ft 446 kts 317°
2026-04-21 05:33 34.46777 -119.58527 20632 ft 449 kts 317°
2026-04-21 05:34 34.49235 -119.60860 20961 ft 449 kts 317°
2026-04-21 05:34 34.51730 -119.63223 21290 ft 450 kts 317°
2026-04-21 05:34 34.54215 -119.65577 21566 ft 452 kts 317°
2026-04-21 05:34 34.56726 -119.67953 21895 ft 452 kts 317°
2026-04-21 05:35 34.59203 -119.70298 22193 ft 453 kts 317°
2026-04-21 05:35 34.61714 -119.72677 22449 ft 455 kts 317°
2026-04-21 05:35 34.64245 -119.75074 22696 ft 458 kts 317°
2026-04-21 05:35 34.66776 -119.77473 23014 ft 458 kts 317°
2026-04-21 05:36 34.69283 -119.79851 23309 ft 458 kts 317°
2026-04-21 05:36 34.71838 -119.82275 23586 ft 459 kts 317°
2026-04-21 05:36 34.74356 -119.84667 23806 ft 462 kts 317°
2026-04-21 05:36 34.76908 -119.87093 24029 ft 464 kts 317°
2026-04-21 05:37 34.79483 -119.89543 24255 ft 466 kts 317°
2026-04-21 05:37 34.82042 -119.91979 24541 ft 466 kts 317°
2026-04-21 05:37 34.84611 -119.94426 24820 ft 467 kts 316°
2026-04-21 05:37 34.87196 -119.96890 25040 ft 469 kts 316°
2026-04-21 05:38 34.89797 -119.99372 25240 ft 471 kts 317°
2026-04-21 05:38 34.92397 -120.01856 25404 ft 474 kts 316°
2026-04-21 05:38 34.95007 -120.04350 25627 ft 476 kts 316°
2026-04-21 05:38 34.97618 -120.06847 25894 ft 476 kts 316°
2026-04-21 05:39 35.00219 -120.09337 26117 ft 478 kts 316°
2026-04-21 05:39 35.02894 -120.11901 26327 ft 480 kts 316°
2026-04-21 05:39 35.05508 -120.14407 26504 ft 482 kts 316°
2026-04-21 05:39 35.08176 -120.16969 26670 ft 485 kts 316°
2026-04-21 05:40 35.10846 -120.19534 26952 ft 484 kts 316°
2026-04-21 05:40 35.13432 -120.22018 27171 ft 485 kts 316°
2026-04-21 05:40 35.16081 -120.24568 27296 ft 489 kts 316°
2026-04-21 05:40 35.18715 -120.27080 27416 ft 492 kts 317°
2026-04-21 05:41 35.21459 -120.29586 27687 ft 492 kts 318°
2026-04-21 05:41 35.24232 -120.32107 27939 ft 492 kts 317°
2026-04-21 05:41 35.26991 -120.34622 28096 ft 495 kts 317°
2026-04-21 05:41 35.29764 -120.37154 28262 ft 496 kts 317°
2026-04-21 05:42 35.32561 -120.39713 28426 ft 498 kts 317°
2026-04-21 05:42 35.35372 -120.42287 28603 ft 500 kts 317°
2026-04-21 05:42 35.38160 -120.44845 28793 ft 501 kts 317°
2026-04-21 05:42 35.40967 -120.47422 28984 ft 502 kts 317°
2026-04-21 05:43 35.43784 -120.50012 29128 ft 504 kts 317°
2026-04-21 05:43 35.46604 -120.52607 29329 ft 505 kts 317°
2026-04-21 05:43 35.49442 -120.55224 29561 ft 504 kts 317°
2026-04-21 05:43 35.52263 -120.57828 29823 ft 503 kts 316°
2026-04-21 05:44 35.55074 -120.60350 30005 ft 504 kts 319°
2026-04-21 05:44 35.57990 -120.62849 30013 ft 504 kts 319°
2026-04-21 05:44 35.63751 -120.67781 30030 ft 503 kts 318°
2026-04-21 05:45 35.69501 -120.72725 30024 ft 503 kts 317°
2026-04-21 05:45 35.75154 -120.77602 30023 ft 504 kts 318°
2026-04-21 05:46 35.80969 -120.82632 30014 ft 505 kts 318°
2026-04-21 05:46 35.86710 -120.87609 30007 ft 506 kts 317°
2026-04-21 05:47 35.92527 -120.92664 30010 ft 508 kts 317°
2026-04-21 05:47 35.98346 -120.97731 30007 ft 509 kts 317°
2026-04-21 05:48 36.04154 -121.02791 30010 ft 510 kts 317°
2026-04-21 05:48 36.09993 -121.07888 30011 ft 511 kts 317°
2026-04-21 05:49 36.15694 -121.12876 29994 ft 509 kts 317°
2026-04-21 05:49 36.21367 -121.17852 29983 ft 512 kts 317°
2026-04-21 05:50 36.27139 -121.22921 29984 ft 511 kts 317°
2026-04-21 05:50 36.32917 -121.28008 29978 ft 513 kts 317°
2026-04-21 05:51 36.38748 -121.33150 29976 ft 512 kts 317°
2026-04-21 05:51 36.44588 -121.38310 29979 ft 514 kts 317°
2026-04-21 05:52 36.50412 -121.43465 29979 ft 514 kts 316°
2026-04-21 05:52 36.56251 -121.48646 29981 ft 516 kts 316°
2026-04-21 05:53 36.62177 -121.53910 29984 ft 516 kts 316°
2026-04-21 05:53 36.68018 -121.59109 29989 ft 515 kts 316°
2026-04-21 05:54 36.73891 -121.64350 29987 ft 519 kts 316°
2026-04-21 05:54 36.79753 -121.69588 29997 ft 518 kts 316°
2026-04-21 05:55 36.85629 -121.74850 29997 ft 518 kts 315°
2026-04-21 05:55 36.91514 -121.80130 29996 ft 519 kts 315°
2026-04-21 05:56 36.97388 -121.85410 30000 ft 520 kts 315°
2026-04-21 05:56 37.03279 -121.90717 29998 ft 524 kts 315°
2026-04-21 05:57 37.09186 -121.96048 29999 ft 526 kts 315°
2026-04-21 05:57 37.14916 -122.01228 29973 ft 526 kts 315°
2026-04-21 05:58 37.26591 -122.11814 29971 ft 526 kts 315°
2026-04-21 05:59 37.32542 -122.17227 29967 ft 528 kts 315°
2026-04-21 06:00 37.41405 -122.25307 29963 ft 529 kts 315°
2026-04-21 06:00 37.47340 -122.30733 29965 ft 534 kts 315°
2026-04-21 06:01 37.53323 -122.36211 29965 ft 531 kts 315°
2026-04-21 06:01 37.59152 -122.41561 29961 ft 533 kts 315°
2026-04-21 06:02 37.65133 -122.47062 29963 ft 536 kts 314°
2026-04-21 06:02 37.71154 -122.52611 29963 ft 539 kts 314°
2026-04-21 06:03 37.77196 -122.58188 29970 ft 538 kts 314°
2026-04-21 06:03 37.83260 -122.63799 29975 ft 540 kts 314°
2026-04-21 06:04 37.89383 -122.69476 29983 ft 541 kts 314°
2026-04-21 06:04 37.95463 -122.75126 29981 ft 544 kts 314°
2026-04-21 06:05 38.01580 -122.80823 29978 ft 546 kts 314°
2026-04-21 06:05 38.07932 -122.86310 29993 ft 563 kts 323°
2026-04-21 06:05 38.11455 -122.88365 29961 ft 576 kts 332°
2026-04-21 06:06 38.15160 -122.89959 29959 ft 578 kts 335°
2026-04-21 06:06 38.22800 -122.93035 29956 ft 583 kts 336°
2026-04-21 06:07 38.30584 -122.96200 29951 ft 584 kts 335°
2026-04-21 06:07 38.38314 -122.99373 29951 ft 585 kts 335°
2026-04-21 06:08 38.46068 -123.02577 29958 ft 586 kts 336°
2026-04-21 06:08 38.53538 -123.06672 29965 ft 577 kts 324°
2026-04-21 06:09 38.60623 -123.11569 29961 ft 572 kts 323°
2026-04-21 06:09 38.67636 -123.16447 29957 ft 576 kts 323°
2026-04-21 06:10 38.74764 -123.21416 29961 ft 578 kts 323°
2026-04-21 06:10 38.81838 -123.26360 29953 ft 578 kts 324°
2026-04-21 06:11 38.88974 -123.31358 29948 ft 582 kts 324°
2026-04-21 06:11 38.96085 -123.36350 29953 ft 580 kts 324°
2026-04-21 06:12 39.03205 -123.41359 29946 ft 583 kts 324°
2026-04-21 06:12 39.10360 -123.46402 29955 ft 581 kts 323°
2026-04-21 06:13 39.17193 -123.51232 29925 ft 584 kts 324°
2026-04-21 06:13 39.24326 -123.56286 29927 ft 584 kts 324°
2026-04-21 06:14 39.31440 -123.61337 29935 ft 585 kts 324°
2026-04-21 06:14 39.38654 -123.66473 29931 ft 588 kts 324°
2026-04-21 06:15 39.45815 -123.71579 29936 ft 584 kts 323°
2026-04-21 06:15 39.52983 -123.76704 29937 ft 588 kts 323°
2026-04-21 06:16 39.60134 -123.81831 29939 ft 587 kts 324°
2026-04-21 06:16 39.67291 -123.86974 29946 ft 587 kts 323°
2026-04-21 06:17 39.74494 -123.92164 29952 ft 591 kts 324°
2026-04-21 06:17 39.81711 -123.97376 29948 ft 593 kts 324°
2026-04-21 06:18 39.89000 -124.02653 29947 ft 594 kts 324°
2026-04-21 06:18 39.96220 -124.07892 29943 ft 592 kts 324°
2026-04-21 06:19 40.03469 -124.13165 29947 ft 591 kts 324°
2026-04-21 06:19 40.10673 -124.18417 29946 ft 590 kts 325°
2026-04-21 06:20 40.17769 -124.23605 29915 ft 591 kts 324°
2026-04-21 06:20 40.24989 -124.28893 29913 ft 588 kts 325°
2026-04-21 06:21 40.32148 -124.34155 29914 ft 592 kts 326°
2026-04-21 06:21 40.39313 -124.39429 29920 ft 589 kts 325°
2026-04-21 06:22 40.46479 -124.44720 29923 ft 589 kts 326°
2026-04-21 06:22 40.53627 -124.50008 29931 ft 585 kts 325°
2026-04-21 06:23 40.60708 -124.55262 29928 ft 589 kts 326°
2026-04-21 06:23 40.67873 -124.60590 29929 ft 586 kts 326°
2026-04-21 06:24 40.74982 -124.65890 29933 ft 588 kts 325°
2026-04-21 06:24 40.82142 -124.71241 29931 ft 588 kts 325°
2026-04-21 06:25 40.89252 -124.76569 29928 ft 589 kts 326°
2026-04-21 06:25 40.96336 -124.81888 29931 ft 583 kts 326°
2026-04-21 06:26 41.03433 -124.87234 29927 ft 587 kts 326°
2026-04-21 06:26 41.10532 -124.92592 29926 ft 587 kts 326°
2026-04-21 06:27 41.17558 -124.97910 29897 ft 587 kts 326°
2026-04-21 06:27 41.24635 -125.03277 29900 ft 585 kts 326°
2026-04-21 06:28 41.31695 -125.08648 29890 ft 587 kts 326°
2026-04-21 06:28 41.38803 -125.14068 29890 ft 586 kts 327°
2026-04-21 06:29 41.45882 -125.19479 29889 ft 585 kts 326°
2026-04-21 06:29 41.52910 -125.24864 29892 ft 582 kts 326°
2026-04-21 06:30 41.59946 -125.30270 29887 ft 585 kts 326°
2026-04-21 06:30 41.67012 -125.35714 29892 ft 586 kts 327°
2026-04-21 06:31 41.74053 -125.41151 29892 ft 586 kts 327°
2026-04-21 06:31 41.81115 -125.46619 29896 ft 581 kts 327°
2026-04-21 06:32 41.88111 -125.52049 29907 ft 584 kts 327°
2026-04-21 06:32 41.95178 -125.57549 29907 ft 583 kts 327°
2026-04-21 06:33 42.02190 -125.63019 29903 ft 580 kts 327°
2026-04-21 06:33 42.09144 -125.68458 29904 ft 579 kts 327°
2026-04-21 06:34 42.16066 -125.73887 29876 ft 581 kts 327°
2026-04-21 06:34 42.23062 -125.79386 29877 ft 577 kts 326°
2026-04-21 06:35 42.29995 -125.84852 29881 ft 579 kts 326°
2026-04-21 06:35 42.36932 -125.90335 29880 ft 577 kts 327°
2026-04-21 06:36 42.43870 -125.95832 29884 ft 578 kts 327°
2026-04-21 06:36 42.50811 -126.01345 29882 ft 576 kts 327°
2026-04-21 06:37 42.57739 -126.06864 29884 ft 576 kts 327°
2026-04-21 06:37 42.64637 -126.12371 29887 ft 573 kts 327°
2026-04-21 06:38 42.71376 -126.18105 29887 ft 572 kts 319°
2026-04-21 06:38 42.74400 -126.21588 30003 ft 570 kts 314°
2026-04-21 06:38 42.77349 -126.25215 30420 ft 565 kts 314°
2026-04-21 06:38 42.80235 -126.28793 30950 ft 556 kts 313°
2026-04-21 06:39 42.83045 -126.32291 31398 ft 549 kts 314°
2026-04-21 06:39 42.85883 -126.35834 31684 ft 546 kts 314°
2026-04-21 06:39 42.88655 -126.39306 31814 ft 547 kts 314°
2026-04-21 06:40 42.94317 -126.46420 32054 ft 549 kts 314°
2026-04-21 06:40 42.97115 -126.49941 32355 ft 545 kts 314°
2026-04-21 06:40 42.99874 -126.53420 32672 ft 541 kts 315°
2026-04-21 06:40 43.02626 -126.56898 32861 ft 540 kts 314°
2026-04-21 06:41 43.05272 -126.60246 32964 ft 541 kts 315°
2026-04-21 06:41 43.08040 -126.63752 33152 ft 539 kts 315°
2026-04-21 06:41 43.10664 -126.67083 33310 ft 539 kts 314°
2026-04-21 06:42 43.15670 -126.74590 33516 ft 537 kts 306°
2026-04-21 06:42 43.18040 -126.78549 33728 ft 535 kts 306°
2026-04-21 06:42 43.20378 -126.82466 33876 ft 534 kts 306°
2026-04-21 06:43 43.25076 -126.90352 33884 ft 531 kts 306°
2026-04-21 06:43 43.29762 -126.98235 33889 ft 534 kts 306°
2026-04-21 06:44 43.34436 -127.06119 33888 ft 535 kts 306°
2026-04-21 06:44 43.39118 -127.14034 33885 ft 534 kts 307°
2026-04-21 06:45 43.43823 -127.22010 33879 ft 535 kts 307°
2026-04-21 06:45 43.48490 -127.29942 33881 ft 533 kts 307°
2026-04-21 06:46 43.53140 -127.37866 33896 ft 532 kts 307°
2026-04-21 06:46 43.57800 -127.45830 33869 ft 533 kts 307°
2026-04-21 06:47 43.62402 -127.53715 33872 ft 531 kts 307°
2026-04-21 06:47 43.67050 -127.61703 33875 ft 532 kts 307°
2026-04-21 06:48 43.71670 -127.69662 33883 ft 530 kts 307°
2026-04-21 06:48 43.76284 -127.77634 33873 ft 530 kts 307°
2026-04-21 06:49 43.80851 -127.85545 33882 ft 529 kts 307°
2026-04-21 06:49 43.85434 -127.93506 33881 ft 529 kts 307°
2026-04-21 06:50 43.90013 -128.01482 33883 ft 528 kts 307°
2026-04-21 06:50 43.94554 -128.09413 33887 ft 526 kts 307°
2026-04-21 06:51 43.99115 -128.17403 33890 ft 527 kts 308°
2026-04-21 06:51 44.03637 -128.25343 33892 ft 526 kts 308°
2026-04-21 06:52 44.08172 -128.33330 33896 ft 526 kts 308°
2026-04-21 06:52 44.12683 -128.41298 33888 ft 525 kts 308°
2026-04-21 06:53 44.17206 -128.49306 33872 ft 524 kts 308°
2026-04-21 06:53 44.21700 -128.57286 33889 ft 524 kts 308°
2026-04-21 06:54 44.26159 -128.65227 33879 ft 522 kts 307°
2026-04-21 06:54 44.30637 -128.73222 33867 ft 522 kts 307°
2026-04-21 06:55 44.35090 -128.81197 33886 ft 521 kts 307°
2026-04-21 06:55 44.39520 -128.89151 33885 ft 521 kts 308°
2026-04-21 06:56 44.43954 -128.97133 33886 ft 520 kts 308°
2026-04-21 06:56 44.48404 -129.05167 33886 ft 520 kts 308°
2026-04-21 06:57 44.52803 -129.13132 33884 ft 518 kts 308°
2026-04-21 06:57 44.57202 -129.21118 33900 ft 518 kts 308°
2026-04-21 06:58 44.61601 -129.29128 33889 ft 517 kts 308°
2026-04-21 06:58 44.65973 -129.37108 33892 ft 516 kts 308°
2026-04-21 06:59 44.70342 -129.45106 33899 ft 516 kts 309°
2026-04-21 06:59 44.74686 -129.53082 33895 ft 515 kts 309°
2026-04-21 07:00 44.79017 -129.61055 33902 ft 513 kts 309°
2026-04-21 07:00 44.83366 -129.69084 33900 ft 513 kts 308°
2026-04-21 07:01 44.87662 -129.77037 33908 ft 513 kts 308°
2026-04-21 07:01 44.94043 -129.88890 33893 ft 510 kts 308°
2026-04-21 07:02 44.98342 -129.96905 33913 ft 511 kts 308°
2026-04-21 07:02 45.01934 -130.05502 33911 ft 512 kts 299°
2026-04-21 07:03 45.05212 -130.14506 33912 ft 512 kts 298°
2026-04-21 07:03 45.08438 -130.23441 33902 ft 512 kts 299°
2026-04-21 07:04 45.11664 -130.32417 33901 ft 512 kts 299°
2026-04-21 07:04 45.14874 -130.41388 33910 ft 511 kts 299°
2026-04-21 07:05 45.18077 -130.50377 33921 ft 510 kts 299°
2026-04-21 07:05 45.21257 -130.59332 33916 ft 512 kts 299°
2026-04-21 07:06 45.24441 -130.68329 33898 ft 509 kts 299°
2026-04-21 07:06 45.27597 -130.77278 33883 ft 508 kts 299°
2026-04-21 07:07 45.30759 -130.86275 33903 ft 508 kts 299°
2026-04-21 07:07 45.33885 -130.95198 33892 ft 505 kts 299°
2026-04-21 07:08 45.37001 -131.04125 33903 ft 504 kts 299°
2026-04-21 07:08 45.40109 -131.13055 33899 ft 506 kts 300°
2026-04-21 07:09 45.43209 -131.21997 33914 ft 504 kts 300°
2026-04-21 07:09 45.46306 -131.30957 33906 ft 504 kts 300°
2026-04-21 07:10 45.49387 -131.39899 33913 ft 504 kts 300°
2026-04-21 07:10 45.52448 -131.48814 33926 ft 503 kts 301°
2026-04-21 07:11 45.55506 -131.57754 33910 ft 500 kts 301°
2026-04-21 07:11 45.58552 -131.66685 33912 ft 501 kts 301°
2026-04-21 07:12 45.61586 -131.75615 33913 ft 499 kts 301°
2026-04-21 07:12 45.64598 -131.84506 33921 ft 499 kts 301°
2026-04-21 07:13 45.67596 -131.93388 33928 ft 497 kts 301°
2026-04-21 07:13 45.70580 -132.02257 33940 ft 494 kts 302°
2026-04-21 07:14 45.73557 -132.11134 33962 ft 495 kts 302°
2026-04-21 07:14 45.76521 -132.20004 33953 ft 491 kts 302°
2026-04-21 07:15 45.79445 -132.28786 33950 ft 490 kts 302°
2026-04-21 07:15 45.82377 -132.37614 33969 ft 489 kts 302°
2026-04-21 07:16 45.85274 -132.46374 33966 ft 486 kts 303°
2026-04-21 07:16 45.88160 -132.55127 33941 ft 483 kts 303°
2026-04-21 07:17 45.91031 -132.63861 33977 ft 484 kts 303°
2026-04-21 07:17 45.93859 -132.72498 33952 ft 481 kts 303°
2026-04-21 07:18 45.96702 -132.81204 33963 ft 481 kts 303°
2026-04-21 07:18 45.99522 -132.89877 33959 ft 474 kts 303°
2026-04-21 07:19 46.02302 -132.98447 33970 ft 475 kts 303°
2026-04-21 07:19 46.05072 -133.07018 33962 ft 473 kts 303°
2026-04-21 07:20 46.07849 -133.15633 33953 ft 477 kts 303°
2026-04-21 07:20 46.10625 -133.24281 33978 ft 474 kts 302°
2026-04-21 07:21 46.13380 -133.32892 33994 ft 472 kts 303°
2026-04-21 07:21 46.16126 -133.41501 34003 ft 475 kts 302°
2026-04-21 07:22 46.18869 -133.50134 34005 ft 472 kts 302°
2026-04-21 07:22 46.21587 -133.58711 34007 ft 473 kts 302°
2026-04-21 07:23 46.24310 -133.67337 34010 ft 474 kts 301°
2026-04-21 07:23 46.27027 -133.75974 34018 ft 472 kts 301°
2026-04-21 07:24 46.29749 -133.84654 34020 ft 471 kts 301°
2026-04-21 07:24 46.32442 -133.93271 34025 ft 472 kts 301°
2026-04-21 07:25 46.35134 -134.01915 34025 ft 471 kts 301°
2026-04-21 07:25 46.37800 -134.10504 34027 ft 470 kts 301°
2026-04-21 07:26 46.40461 -134.19107 34030 ft 470 kts 301°
2026-04-21 07:26 46.43131 -134.27766 34032 ft 470 kts 300°
2026-04-21 07:27 46.45772 -134.36363 34034 ft 468 kts 300°
2026-04-21 07:27 46.48414 -134.44989 34036 ft 469 kts 300°
2026-04-21 07:28 46.51050 -134.53630 34039 ft 468 kts 300°
2026-04-21 07:28 46.53690 -134.62311 34046 ft 469 kts 300°
2026-04-21 07:29 46.56300 -134.70923 34048 ft 469 kts 299°
2026-04-21 07:29 46.58924 -134.79613 34050 ft 467 kts 299°
2026-04-21 07:30 46.61518 -134.88234 34054 ft 468 kts 299°
2026-04-21 07:30 46.64123 -134.96918 34057 ft 468 kts 298°
2026-04-21 07:31 46.66699 -135.05537 34049 ft 466 kts 298°
2026-04-21 07:31 46.69283 -135.14212 34059 ft 467 kts 298°
2026-04-21 07:32 46.71852 -135.22870 34062 ft 467 kts 298°
2026-04-21 07:32 46.74420 -135.31554 34064 ft 466 kts 298°
2026-04-21 07:33 46.76976 -135.40225 34072 ft 467 kts 298°
2026-04-21 07:33 46.79528 -135.48915 34076 ft 465 kts 298°
2026-04-21 07:34 46.82058 -135.57561 34086 ft 466 kts 298°
2026-04-21 07:34 46.84605 -135.66295 34084 ft 465 kts 297°
2026-04-21 07:35 46.87128 -135.74976 34091 ft 466 kts 297°
2026-04-21 07:35 46.89644 -135.83664 34096 ft 466 kts 297°
2026-04-21 07:36 46.92160 -135.92386 34099 ft 467 kts 297°
2026-04-21 07:36 46.94678 -136.01146 34102 ft 466 kts 297°
2026-04-21 07:37 46.97185 -136.09897 34107 ft 467 kts 297°
2026-04-21 07:37 46.99678 -136.18630 34111 ft 465 kts 296°
2026-04-21 07:38 47.02161 -136.27362 34107 ft 464 kts 296°
2026-04-21 07:38 47.04631 -136.36076 34111 ft 465 kts 296°
2026-04-21 07:39 47.07103 -136.44829 34115 ft 466 kts 296°
2026-04-21 07:39 47.09578 -136.53628 34116 ft 465 kts 296°
2026-04-21 07:40 47.12030 -136.62376 34130 ft 465 kts 296°
2026-04-21 07:40 47.14492 -136.71191 34131 ft 465 kts 295°
2026-04-21 07:41 47.16933 -136.79964 34126 ft 465 kts 295°
2026-04-21 07:41 47.19370 -136.88754 34140 ft 464 kts 295°
2026-04-21 07:42 47.21783 -136.97488 34134 ft 464 kts 295°
2026-04-21 07:42 47.24205 -137.06287 34138 ft 463 kts 295°
2026-04-21 07:43 47.26606 -137.15045 34143 ft 462 kts 295°
2026-04-21 07:43 47.28998 -137.23801 34154 ft 461 kts 295°
2026-04-21 07:44 47.31369 -137.32509 34154 ft 461 kts 295°
2026-04-21 07:44 47.33743 -137.41264 34158 ft 461 kts 295°
2026-04-21 07:45 47.36111 -137.50030 34166 ft 459 kts 294°
2026-04-21 07:45 47.38454 -137.58734 34167 ft 459 kts 294°
2026-04-21 07:46 47.40804 -137.67497 34179 ft 459 kts 294°
2026-04-21 07:46 47.43141 -137.76242 34180 ft 458 kts 294°
2026-04-21 07:47 47.45475 -137.85013 34184 ft 457 kts 293°
2026-04-21 07:47 47.47786 -137.93723 34190 ft 456 kts 293°
2026-04-21 07:48 47.50086 -138.02431 34187 ft 457 kts 293°
2026-04-21 07:48 47.52387 -138.11174 34198 ft 456 kts 293°
2026-04-21 07:49 47.54681 -138.19920 34202 ft 455 kts 293°
2026-04-21 07:49 47.56952 -138.28612 34198 ft 456 kts 293°
2026-04-21 07:50 47.59226 -138.37352 34200 ft 455 kts 293°
2026-04-21 07:50 47.61484 -138.46060 34202 ft 454 kts 293°
2026-04-21 07:51 47.63736 -138.54781 34203 ft 454 kts 292°
2026-04-21 07:51 47.65989 -138.63533 34206 ft 454 kts 292°
2026-04-21 07:52 47.68229 -138.72273 34218 ft 455 kts 292°
2026-04-21 07:52 47.70467 -138.81039 34219 ft 453 kts 292°
2026-04-21 07:53 47.72688 -138.89769 34220 ft 454 kts 292°
2026-04-21 07:53 47.74844 -138.98279 34227 ft 452 kts 291°
2026-04-21 07:54 47.77046 -139.07001 34225 ft 453 kts 291°
2026-04-21 07:54 47.79256 -139.15790 34229 ft 453 kts 291°
2026-04-21 07:55 47.81446 -139.24533 34232 ft 453 kts 291°
2026-04-21 07:55 47.83639 -139.33319 34233 ft 453 kts 291°
2026-04-21 07:56 47.85829 -139.42129 34235 ft 452 kts 291°
2026-04-21 07:56 47.87999 -139.50896 34239 ft 453 kts 291°
2026-04-21 07:57 47.90166 -139.59683 34236 ft 452 kts 291°
2026-04-21 07:57 47.92324 -139.68469 34249 ft 453 kts 290°
2026-04-21 07:58 47.94487 -139.77307 34248 ft 453 kts 290°
2026-04-21 07:58 47.96636 -139.86127 34249 ft 452 kts 290°
2026-04-21 07:59 47.98780 -139.94960 34253 ft 452 kts 290°
2026-04-21 07:59 48.01005 -140.03697 34255 ft 452 kts 296°
2026-04-21 08:00 48.04081 -140.11881 34261 ft 453 kts 299°
2026-04-21 08:00 48.07146 -140.20038 34260 ft 452 kts 298°
2026-04-21 08:01 48.10181 -140.28293 34267 ft 452 kts 298°
2026-04-21 08:02 48.14669 -140.40678 34273 ft 452 kts 298°
2026-04-21 08:02 48.17639 -140.48949 34274 ft 451 kts 297°
2026-04-21 08:03 48.20588 -140.57201 34271 ft 451 kts 297°
2026-04-21 08:03 48.23547 -140.65514 34282 ft 451 kts 296°
2026-04-21 08:04 48.26482 -140.73793 34282 ft 451 kts 296°
2026-04-21 08:04 48.29416 -140.82094 34282 ft 451 kts 296°
2026-04-21 08:05 48.32342 -140.90402 34286 ft 451 kts 296°
2026-04-21 08:05 48.35254 -140.98698 34291 ft 449 kts 296°
2026-04-21 08:06 48.38167 -141.07021 34295 ft 450 kts 296°
2026-04-21 08:06 48.41061 -141.15318 34299 ft 449 kts 296°
2026-04-21 08:07 48.43964 -141.23668 34300 ft 450 kts 296°
2026-04-21 08:07 48.46836 -141.31953 34302 ft 448 kts 296°
2026-04-21 08:08 48.49732 -141.40337 34309 ft 448 kts 296°
2026-04-21 08:08 48.52589 -141.48634 34303 ft 447 kts 296°
2026-04-21 08:09 48.55438 -141.56934 34309 ft 448 kts 296°
2026-04-21 08:09 48.58284 -141.65251 34314 ft 446 kts 295°
2026-04-21 08:10 48.61141 -141.73631 34317 ft 447 kts 295°
2026-04-21 08:10 48.63965 -141.81937 34327 ft 444 kts 295°
2026-04-21 08:11 48.66787 -141.90266 34328 ft 446 kts 295°
2026-04-21 08:11 48.69597 -141.98589 34328 ft 444 kts 295°
2026-04-21 08:12 48.72404 -142.06926 34329 ft 445 kts 295°
2026-04-21 08:12 48.75217 -142.15311 34326 ft 445 kts 295°
2026-04-21 08:13 48.78005 -142.23647 34329 ft 444 kts 295°
2026-04-21 08:13 48.80780 -142.31973 34331 ft 444 kts 295°
2026-04-21 08:14 48.83548 -142.40303 34336 ft 443 kts 294°
2026-04-21 08:14 48.86326 -142.48692 34334 ft 444 kts 294°
2026-04-21 08:15 48.89077 -142.57025 34331 ft 442 kts 294°
2026-04-21 08:15 48.91834 -142.65405 34336 ft 443 kts 294°
2026-04-21 08:16 48.94566 -142.73738 34349 ft 442 kts 294°
2026-04-21 08:16 48.97303 -142.82111 34349 ft 442 kts 294°
2026-04-21 08:17 49.00024 -142.90466 34353 ft 441 kts 294°
2026-04-21 08:17 49.02737 -142.98820 34362 ft 441 kts 294°
2026-04-21 08:18 49.05446 -143.07193 34358 ft 442 kts 294°
2026-04-21 08:18 49.08150 -143.15576 34362 ft 441 kts 294°
2026-04-21 08:19 49.10851 -143.23981 34367 ft 441 kts 293°
2026-04-21 08:19 49.13541 -143.32378 34357 ft 441 kts 294°
2026-04-21 08:20 49.16215 -143.40753 34346 ft 440 kts 294°
2026-04-21 08:20 49.18903 -143.49200 34348 ft 440 kts 294°
2026-04-21 08:21 49.21569 -143.57606 34357 ft 440 kts 294°
2026-04-21 08:21 49.24235 -143.66040 34361 ft 441 kts 292°
2026-04-21 08:22 49.26885 -143.74452 34371 ft 441 kts 292°
2026-04-21 08:22 49.29553 -143.82951 34370 ft 441 kts 293°
2026-04-21 08:23 49.32199 -143.91408 34361 ft 443 kts 293°
2026-04-21 08:23 49.34852 -143.99916 34358 ft 441 kts 293°
2026-04-21 08:24 49.37497 -144.08427 34360 ft 440 kts 293°
2026-04-21 08:24 49.40116 -144.16885 34363 ft 441 kts 293°
2026-04-21 08:25 49.42736 -144.25375 34363 ft 442 kts 293°
2026-04-21 08:25 49.45368 -144.33931 34368 ft 442 kts 293°
2026-04-21 08:26 49.47970 -144.42423 34360 ft 442 kts 293°
2026-04-21 08:26 49.50591 -144.51004 34372 ft 443 kts 293°
2026-04-21 08:27 49.53202 -144.59582 34375 ft 443 kts 293°
2026-04-21 08:27 49.55809 -144.68176 34377 ft 442 kts 292°
2026-04-21 08:28 49.58391 -144.76721 34377 ft 444 kts 292°
2026-04-21 08:28 49.60981 -144.85319 34372 ft 443 kts 292°
2026-04-21 08:29 49.63561 -144.93916 34383 ft 443 kts 292°
2026-04-21 08:29 49.66145 -145.02557 34385 ft 443 kts 292°
2026-04-21 08:30 49.68729 -145.11229 34386 ft 444 kts 292°
2026-04-21 08:30 49.71307 -145.19908 34386 ft 444 kts 292°
2026-04-21 08:31 49.73864 -145.28551 34389 ft 444 kts 293°
2026-04-21 08:31 49.76420 -145.37222 34394 ft 444 kts 292°
2026-04-21 08:32 49.78984 -145.45952 34387 ft 445 kts 293°
2026-04-21 08:32 49.81532 -145.54654 34392 ft 446 kts 292°
2026-04-21 08:33 49.84081 -145.63396 34394 ft 446 kts 292°
2026-04-21 08:33 49.86621 -145.72136 34405 ft 445 kts 292°
2026-04-21 08:34 49.89158 -145.80901 34401 ft 444 kts 292°
2026-04-21 08:34 49.91668 -145.89598 34394 ft 445 kts 292°
2026-04-21 08:35 49.94181 -145.98343 34405 ft 445 kts 292°
2026-04-21 08:35 49.96708 -146.07165 34410 ft 445 kts 292°
2026-04-21 08:36 49.99206 -146.15924 34394 ft 446 kts 292°
2026-04-21 08:36 50.01708 -146.24724 34403 ft 446 kts 292°
2026-04-21 08:37 50.04213 -146.33569 34392 ft 446 kts 292°
2026-04-21 08:37 50.06692 -146.42354 34399 ft 446 kts 292°
2026-04-21 08:38 50.09179 -146.51202 34408 ft 446 kts 292°
2026-04-21 08:38 50.11664 -146.60075 34408 ft 446 kts 292°
2026-04-21 08:39 50.14129 -146.68909 34406 ft 446 kts 291°
2026-04-21 08:39 50.16595 -146.77783 34409 ft 445 kts 291°
2026-04-21 08:40 50.19035 -146.86592 34395 ft 444 kts 291°
2026-04-21 08:40 50.21479 -146.95451 34398 ft 444 kts 291°
2026-04-21 08:41 50.23920 -147.04334 34399 ft 446 kts 291°
2026-04-21 08:41 50.26345 -147.13190 34396 ft 445 kts 291°
2026-04-21 08:42 50.28771 -147.22087 34394 ft 445 kts 291°
2026-04-21 08:42 50.31189 -147.30986 34395 ft 445 kts 291°
2026-04-21 08:43 50.33590 -147.39856 34390 ft 444 kts 291°
2026-04-21 08:43 50.35986 -147.48740 34392 ft 445 kts 291°
2026-04-21 08:44 50.38389 -147.57687 34391 ft 444 kts 291°
2026-04-21 08:44 50.40773 -147.66599 34396 ft 444 kts 290°
2026-04-21 08:45 50.43144 -147.75494 34401 ft 444 kts 291°
2026-04-21 08:45 50.45507 -147.84395 34402 ft 444 kts 290°
2026-04-21 08:46 50.47875 -147.93344 34408 ft 444 kts 290°
2026-04-21 08:46 50.50238 -148.02318 34408 ft 443 kts 290°
2026-04-21 08:47 50.52580 -148.11241 34410 ft 443 kts 290°
2026-04-21 08:47 50.54907 -148.20143 34409 ft 443 kts 290°
2026-04-21 08:48 50.57245 -148.29120 34406 ft 443 kts 291°
2026-04-21 08:48 50.59573 -148.38100 34405 ft 444 kts 290°
2026-04-21 08:49 50.61890 -148.47067 34406 ft 443 kts 291°
2026-04-21 08:49 50.64210 -148.56084 34407 ft 443 kts 291°
2026-04-21 08:50 50.66504 -148.65039 34410 ft 443 kts 290°
2026-04-21 08:50 50.68811 -148.74074 34408 ft 443 kts 290°
2026-04-21 08:51 50.71098 -148.83072 34414 ft 442 kts 290°
2026-04-21 08:51 50.73374 -148.92058 34401 ft 441 kts 290°
2026-04-21 08:52 50.75642 -149.01050 34396 ft 442 kts 290°
2026-04-21 08:52 50.77893 -149.10014 34397 ft 443 kts 290°
2026-04-21 08:53 50.80161 -149.19080 34397 ft 444 kts 290°
2026-04-21 08:53 50.82420 -149.28145 34395 ft 443 kts 290°
2026-04-21 08:54 50.84669 -149.37210 34396 ft 444 kts 290°
2026-04-21 08:54 50.86907 -149.46265 34408 ft 444 kts 290°
2026-04-21 08:55 50.89156 -149.55403 34399 ft 444 kts 290°
2026-04-21 08:55 50.91389 -149.64510 34402 ft 444 kts 290°
2026-04-21 08:56 50.93599 -149.73567 34409 ft 444 kts 289°
2026-04-21 08:56 50.95823 -149.82715 34407 ft 444 kts 289°
2026-04-21 08:57 50.98027 -149.91820 34406 ft 444 kts 289°
2026-04-21 08:57 51.00261 -150.00989 34402 ft 444 kts 290°
2026-04-21 08:58 51.02549 -150.10080 34397 ft 445 kts 290°
2026-04-21 08:58 51.04835 -150.19186 34389 ft 445 kts 291°
2026-04-21 08:59 51.07120 -150.28325 34396 ft 446 kts 291°
2026-04-21 08:59 51.09400 -150.37473 34393 ft 447 kts 291°
2026-04-21 09:00 51.11693 -150.46710 34393 ft 448 kts 291°
2026-04-21 09:00 51.13969 -150.55922 34393 ft 448 kts 291°
2026-04-21 09:01 51.16222 -150.65076 34392 ft 448 kts 290°
2026-04-21 09:01 51.18497 -150.74352 34399 ft 449 kts 290°
2026-04-21 09:02 51.20763 -150.83635 34396 ft 450 kts 290°
2026-04-21 09:02 51.23022 -150.92928 34395 ft 450 kts 290°
2026-04-21 09:03 51.26382 -151.06828 34396 ft 451 kts 290°
2026-04-21 09:03 51.28627 -151.16161 34399 ft 450 kts 290°
2026-04-21 09:04 51.30869 -151.25523 34393 ft 451 kts 290°
2026-04-21 09:04 51.33089 -151.34836 34392 ft 451 kts 290°
2026-04-21 09:05 51.35310 -151.44186 34387 ft 451 kts 291°
2026-04-21 09:05 51.37538 -151.53615 34393 ft 452 kts 291°
2026-04-21 09:06 51.39739 -151.62964 34390 ft 452 kts 291°
2026-04-21 09:06 51.41959 -151.72440 34397 ft 452 kts 290°
2026-04-21 09:07 51.44141 -151.81793 34388 ft 453 kts 290°
2026-04-21 09:07 51.46341 -151.91263 34382 ft 455 kts 290°
2026-04-21 09:08 51.48548 -152.00804 34384 ft 454 kts 290°
2026-04-21 09:08 51.50722 -152.10248 34380 ft 454 kts 290°
2026-04-21 09:09 51.52900 -152.19751 34375 ft 455 kts 290°
2026-04-21 09:09 51.55082 -152.29314 34377 ft 455 kts 290°
2026-04-21 09:10 51.57243 -152.38826 34369 ft 456 kts 290°
2026-04-21 09:10 51.59402 -152.48373 34366 ft 456 kts 290°
2026-04-21 09:11 51.61557 -152.57948 34365 ft 456 kts 291°
2026-04-21 09:11 51.63705 -152.67535 34361 ft 456 kts 290°
2026-04-21 09:12 51.65847 -152.77139 34360 ft 456 kts 290°
2026-04-21 09:12 51.67976 -152.86726 34360 ft 455 kts 290°
2026-04-21 09:13 51.70093 -152.96307 34362 ft 456 kts 290°
2026-04-21 09:13 51.72217 -153.05965 34358 ft 457 kts 290°
2026-04-21 09:14 51.74323 -153.15582 34354 ft 456 kts 290°
2026-04-21 09:14 51.76424 -153.25223 34351 ft 457 kts 290°
2026-04-21 09:15 51.78518 -153.34877 34350 ft 457 kts 290°
2026-04-21 09:15 51.80605 -153.44547 34349 ft 457 kts 290°
2026-04-21 09:16 51.82680 -153.54201 34345 ft 458 kts 290°
2026-04-21 09:16 51.84762 -153.63940 34345 ft 457 kts 290°
2026-04-21 09:17 51.86826 -153.73637 34345 ft 459 kts 290°
2026-04-21 09:17 51.88887 -153.83366 34344 ft 458 kts 290°
2026-04-21 09:18 51.90947 -153.93138 34341 ft 459 kts 290°
2026-04-21 09:18 51.92996 -154.02907 34337 ft 458 kts 290°
2026-04-21 09:19 51.95042 -154.12707 34335 ft 459 kts 290°
2026-04-21 09:19 51.97062 -154.22430 34333 ft 458 kts 290°
2026-04-21 09:20 51.99091 -154.32246 34326 ft 460 kts 290°
2026-04-21 09:20 52.01109 -154.42058 34330 ft 459 kts 290°
2026-04-21 09:21 52.03119 -154.51877 34325 ft 459 kts 290°
2026-04-21 09:21 52.05115 -154.61679 34333 ft 461 kts 290°
2026-04-21 09:22 52.07120 -154.71574 34323 ft 459 kts 289°
2026-04-21 09:22 52.09094 -154.81361 34320 ft 458 kts 290°
2026-04-21 09:23 52.11066 -154.91191 34329 ft 458 kts 289°
2026-04-21 09:23 52.13037 -155.01064 34333 ft 459 kts 289°
2026-04-21 09:24 52.14985 -155.10875 34322 ft 458 kts 289°
2026-04-21 09:24 52.16938 -155.20754 34314 ft 460 kts 289°
2026-04-21 09:25 52.18884 -155.30653 34303 ft 460 kts 289°
2026-04-21 09:25 52.20828 -155.40595 34302 ft 459 kts 289°
2026-04-21 09:26 52.22756 -155.50503 34300 ft 458 kts 289°
2026-04-21 09:26 52.24664 -155.60361 34300 ft 459 kts 289°
2026-04-21 09:27 52.26580 -155.70309 34302 ft 458 kts 289°
2026-04-21 09:27 52.28471 -155.80180 34300 ft 459 kts 289°
2026-04-21 09:28 52.30362 -155.90099 34297 ft 459 kts 289°
2026-04-21 09:28 52.32250 -156.00061 34292 ft 460 kts 289°
2026-04-21 09:29 52.34129 -156.10023 34290 ft 460 kts 289°
2026-04-21 09:29 52.36002 -156.20012 34289 ft 459 kts 289°
2026-04-21 09:30 52.37849 -156.29910 34287 ft 458 kts 289°
2026-04-21 09:30 52.39706 -156.39917 34280 ft 459 kts 289°
2026-04-21 09:31 52.41547 -156.49890 34276 ft 458 kts 289°
2026-04-21 09:31 52.43379 -156.59868 34273 ft 460 kts 289°
2026-04-21 09:32 52.45199 -156.69836 34279 ft 459 kts 288°
2026-04-21 09:32 52.47023 -156.79881 34276 ft 458 kts 288°
2026-04-21 09:33 52.48837 -156.89925 34269 ft 458 kts 288°
2026-04-21 09:33 52.50627 -156.99893 34261 ft 458 kts 288°
2026-04-21 09:34 52.52422 -157.09943 34263 ft 458 kts 288°
2026-04-21 09:34 52.54197 -157.19934 34258 ft 460 kts 288°
2026-04-21 09:35 52.55976 -157.30005 34253 ft 458 kts 288°
2026-04-21 09:35 52.57742 -157.40057 34252 ft 460 kts 288°
2026-04-21 09:36 52.59505 -157.50153 34247 ft 460 kts 288°
2026-04-21 09:36 52.61256 -157.60233 34242 ft 459 kts 288°
2026-04-21 09:37 52.62993 -157.70293 34244 ft 460 kts 287°
2026-04-21 09:37 52.64733 -157.80429 34243 ft 458 kts 287°
2026-04-21 09:38 52.66445 -157.90459 34235 ft 459 kts 287°
2026-04-21 09:38 52.68164 -158.00581 34222 ft 458 kts 287°
2026-04-21 09:39 52.69877 -158.10730 34223 ft 460 kts 287°
2026-04-21 09:39 52.71566 -158.20801 34217 ft 458 kts 286°
2026-04-21 09:40 52.73252 -158.30908 34216 ft 459 kts 286°
2026-04-21 09:40 52.74938 -158.41078 34210 ft 458 kts 286°
2026-04-21 09:41 52.76598 -158.51152 34203 ft 457 kts 286°
2026-04-21 09:41 52.78266 -158.61327 34205 ft 459 kts 286°
2026-04-21 09:42 52.79917 -158.71464 34206 ft 458 kts 285°
2026-04-21 09:42 52.81564 -158.81636 34199 ft 459 kts 285°
2026-04-21 09:43 52.83198 -158.91792 34199 ft 458 kts 285°
2026-04-21 09:43 52.84819 -159.01927 34192 ft 457 kts 285°
2026-04-21 09:44 52.86435 -159.12096 34192 ft 459 kts 285°
2026-04-21 09:44 52.88054 -159.22339 34189 ft 460 kts 285°
2026-04-21 09:45 52.89590 -159.32121 34186 ft 458 kts 284°
2026-04-21 09:45 52.91185 -159.42340 34182 ft 458 kts 284°
2026-04-21 09:46 52.92769 -159.52551 34182 ft 459 kts 284°
2026-04-21 09:46 52.94343 -159.62759 34178 ft 459 kts 284°
2026-04-21 09:47 52.95913 -159.73010 34179 ft 459 kts 283°
2026-04-21 09:47 52.97461 -159.83182 34179 ft 459 kts 283°
2026-04-21 09:48 52.99014 -159.93443 34175 ft 458 kts 283°
2026-04-21 09:48 53.00532 -160.03717 34177 ft 459 kts 282°
2026-04-21 09:49 53.02018 -160.14009 34169 ft 459 kts 283°
2026-04-21 09:49 53.03493 -160.24303 34157 ft 459 kts 283°
2026-04-21 09:50 53.04964 -160.34639 34157 ft 459 kts 282°
2026-04-21 09:50 53.06422 -160.44959 34145 ft 461 kts 282°
2026-04-21 09:51 53.07874 -160.55306 34137 ft 459 kts 282°
2026-04-21 09:51 53.09306 -160.65585 34129 ft 461 kts 281°
2026-04-21 09:52 53.10733 -160.75900 34123 ft 458 kts 281°
2026-04-21 09:52 53.12156 -160.86258 34117 ft 459 kts 281°
2026-04-21 09:53 53.13568 -160.96603 34114 ft 459 kts 281°
2026-04-21 09:53 53.14966 -161.06924 34114 ft 460 kts 281°
2026-04-21 09:54 53.16363 -161.17310 34105 ft 460 kts 281°
2026-04-21 09:54 53.17750 -161.27689 34104 ft 461 kts 281°
2026-04-21 09:55 53.19137 -161.38147 34096 ft 460 kts 281°
2026-04-21 09:55 53.20502 -161.48520 34098 ft 460 kts 281°
2026-04-21 09:56 53.21865 -161.58943 34094 ft 461 kts 281°
2026-04-21 09:56 53.23216 -161.69353 34097 ft 460 kts 280°
2026-04-21 09:57 53.24563 -161.79810 34098 ft 461 kts 280°
2026-04-21 09:57 53.25887 -161.90167 34096 ft 460 kts 280°
2026-04-21 09:58 53.27222 -162.00685 34087 ft 461 kts 280°
2026-04-21 09:58 53.28541 -162.11159 34082 ft 462 kts 280°
2026-04-21 09:59 53.29845 -162.21594 34076 ft 462 kts 279°
2026-04-21 09:59 53.31150 -162.32117 34074 ft 462 kts 280°
2026-04-21 10:00 53.32441 -162.42598 34056 ft 461 kts 279°
2026-04-21 10:00 53.33718 -162.53061 34055 ft 462 kts 279°
2026-04-21 10:01 53.34994 -162.63590 34049 ft 462 kts 279°
2026-04-21 10:01 53.36258 -162.74094 34043 ft 461 kts 279°
2026-04-21 10:02 53.38139 -162.89902 34031 ft 462 kts 278°
2026-04-21 10:03 53.39383 -163.00449 34032 ft 461 kts 278°
2026-04-21 10:03 53.40615 -163.10996 34029 ft 462 kts 278°
2026-04-21 10:04 53.41833 -163.21497 34022 ft 461 kts 278°
2026-04-21 10:04 53.43047 -163.32056 34011 ft 463 kts 278°
2026-04-21 10:05 53.44257 -163.42656 34007 ft 463 kts 278°
2026-04-21 10:05 53.45452 -163.53224 33999 ft 463 kts 278°
2026-04-21 10:06 53.46641 -163.63826 34000 ft 462 kts 278°
2026-04-21 10:06 53.47819 -163.74416 33997 ft 463 kts 277°
2026-04-21 10:07 53.48982 -163.84955 33990 ft 462 kts 277°
2026-04-21 10:07 53.50148 -163.95625 33992 ft 463 kts 277°
2026-04-21 10:08 53.51296 -164.06216 33973 ft 464 kts 277°
2026-04-21 10:08 53.52437 -164.16834 33972 ft 463 kts 277°
2026-04-21 10:09 53.53571 -164.27477 33976 ft 464 kts 277°
2026-04-21 10:09 53.54700 -164.38176 33967 ft 463 kts 277°
2026-04-21 10:10 53.55811 -164.48795 33965 ft 463 kts 277°
2026-04-21 10:10 53.56915 -164.59442 33958 ft 464 kts 277°
2026-04-21 10:11 53.57999 -164.69998 33958 ft 463 kts 276°
2026-04-21 10:11 53.59089 -164.80701 33954 ft 462 kts 276°
2026-04-21 10:12 53.60161 -164.91333 33950 ft 463 kts 276°
2026-04-21 10:12 53.61226 -165.01993 33947 ft 461 kts 276°
2026-04-21 10:13 53.62282 -165.12659 33944 ft 463 kts 276°
2026-04-21 10:13 53.63334 -165.23387 33935 ft 463 kts 276°
2026-04-21 10:14 53.64370 -165.34061 33933 ft 464 kts 276°
2026-04-21 10:14 53.65396 -165.44728 33916 ft 464 kts 276°
2026-04-21 10:15 53.66423 -165.55510 33916 ft 464 kts 276°
2026-04-21 10:15 53.67429 -165.66187 33916 ft 463 kts 275°
2026-04-21 10:16 53.68431 -165.76918 33913 ft 464 kts 275°
2026-04-21 10:16 53.69425 -165.87680 33911 ft 465 kts 275°
2026-04-21 10:17 53.70408 -165.98427 33917 ft 465 kts 275°
2026-04-21 10:17 53.71384 -166.09204 33889 ft 465 kts 275°
2026-04-21 10:18 53.72342 -166.19899 33884 ft 465 kts 275°
2026-04-21 10:18 53.73307 -166.30778 33855 ft 464 kts 275°
2026-04-21 10:19 53.74255 -166.41594 33868 ft 467 kts 275°
2026-04-21 10:19 53.75192 -166.52388 33875 ft 465 kts 275°
2026-04-21 10:20 53.76122 -166.63223 33865 ft 466 kts 275°
2026-04-21 10:20 53.77040 -166.74042 33841 ft 465 kts 274°
2026-04-21 10:21 53.77946 -166.84827 33836 ft 466 kts 274°
2026-04-21 10:21 53.78849 -166.95700 33836 ft 465 kts 274°
2026-04-21 10:22 53.79735 -167.06503 33844 ft 467 kts 274°
2026-04-21 10:22 53.80620 -167.17407 33834 ft 467 kts 273°
2026-04-21 10:23 53.81496 -167.28326 33827 ft 470 kts 273°
2026-04-21 10:23 53.82359 -167.39209 33820 ft 468 kts 273°
2026-04-21 10:24 53.83217 -167.50165 33813 ft 470 kts 273°
2026-04-21 10:24 53.84065 -167.61124 33813 ft 469 kts 273°
2026-04-21 10:25 53.84903 -167.72092 33813 ft 469 kts 272°
2026-04-21 10:25 53.85728 -167.83014 33810 ft 469 kts 272°
2026-04-21 10:26 53.86543 -167.93939 33808 ft 469 kts 272°
2026-04-21 10:26 53.87355 -168.04987 33798 ft 471 kts 272°
2026-04-21 10:27 53.88153 -168.15965 33794 ft 472 kts 272°
2026-04-21 10:27 53.88944 -168.26987 33786 ft 473 kts 272°
2026-04-21 10:28 53.89724 -168.38001 33783 ft 471 kts 272°
2026-04-21 10:28 53.90492 -168.48987 33775 ft 472 kts 272°
2026-04-21 10:29 53.91256 -168.60075 33768 ft 472 kts 271°
2026-04-21 10:29 53.92004 -168.71095 33771 ft 474 kts 271°
2026-04-21 10:30 53.92748 -168.82179 33771 ft 474 kts 271°
2026-04-21 10:30 53.93478 -168.93230 33767 ft 476 kts 271°
2026-04-21 10:31 53.94201 -169.04334 33768 ft 474 kts 270°
2026-04-21 10:31 53.94917 -169.15483 33760 ft 475 kts 270°
2026-04-21 10:32 53.95622 -169.26634 33753 ft 477 kts 270°
2026-04-21 10:32 53.96318 -169.37799 33755 ft 476 kts 270°
2026-04-21 10:33 53.97001 -169.48938 33747 ft 477 kts 270°
2026-04-21 10:33 53.97680 -169.60187 33732 ft 478 kts 270°
2026-04-21 10:34 53.98347 -169.71394 33725 ft 480 kts 270°
2026-04-21 10:34 53.99005 -169.82640 33716 ft 478 kts 269°
2026-04-21 10:35 53.99653 -169.93915 33716 ft 481 kts 270°
2026-04-21 10:35 54.00414 -170.05191 33701 ft 485 kts 275°
2026-04-21 10:36 54.01753 -170.16408 33702 ft 487 kts 276°
2026-04-21 10:36 54.03074 -170.27666 33698 ft 485 kts 276°
2026-04-21 10:37 54.04354 -170.38893 33695 ft 487 kts 275°
2026-04-21 10:37 54.05619 -170.50197 33697 ft 487 kts 275°
2026-04-21 10:38 54.06873 -170.61572 33695 ft 488 kts 275°
2026-04-21 10:38 54.08105 -170.72873 33692 ft 486 kts 274°
2026-04-21 10:39 54.09327 -170.84215 33690 ft 488 kts 274°
2026-04-21 10:39 54.10539 -170.95579 33676 ft 488 kts 274°
2026-04-21 10:40 54.11738 -171.06929 33657 ft 488 kts 274°
2026-04-21 10:40 54.12925 -171.18278 33647 ft 487 kts 274°
2026-04-21 10:41 54.14099 -171.29620 33646 ft 488 kts 274°
2026-04-21 10:41 54.15270 -171.41037 33642 ft 491 kts 274°
2026-04-21 10:42 54.16427 -171.52420 33640 ft 488 kts 274°
2026-04-21 10:42 54.17578 -171.63881 33638 ft 490 kts 274°
2026-04-21 10:43 54.18710 -171.75241 33634 ft 488 kts 273°
2026-04-21 10:43 54.19836 -171.86668 33618 ft 487 kts 273°
2026-04-21 10:44 54.20942 -171.98013 33616 ft 488 kts 273°
2026-04-21 10:44 54.22045 -172.09441 33607 ft 489 kts 273°
2026-04-21 10:45 54.23145 -172.20949 33612 ft 491 kts 273°
2026-04-21 10:45 54.24231 -172.32437 33610 ft 491 kts 273°
2026-04-21 10:46 54.25310 -172.43968 33618 ft 491 kts 273°
2026-04-21 10:46 54.26367 -172.55386 33606 ft 490 kts 273°
2026-04-21 10:47 54.27428 -172.66975 33590 ft 492 kts 272°
2026-04-21 10:47 54.28468 -172.78451 33603 ft 491 kts 272°
2026-04-21 10:48 54.29499 -172.89970 33602 ft 491 kts 272°
2026-04-21 10:48 54.30525 -173.01566 33582 ft 493 kts 272°
2026-04-21 10:49 54.31536 -173.13110 33581 ft 492 kts 272°
2026-04-21 10:49 54.32542 -173.24728 33581 ft 492 kts 272°
2026-04-21 10:50 54.33534 -173.36334 33580 ft 496 kts 272°
2026-04-21 10:50 54.34521 -173.48001 33576 ft 496 kts 272°
2026-04-21 10:51 54.35496 -173.59680 33570 ft 495 kts 272°
2026-04-21 10:51 54.36455 -173.71291 33563 ft 496 kts 271°
2026-04-21 10:52 54.37413 -173.83043 33575 ft 497 kts 271°
2026-04-21 10:52 54.38353 -173.94710 33554 ft 496 kts 271°
2026-04-21 10:53 54.39282 -174.06393 33538 ft 498 kts 271°
2026-04-21 10:53 54.40206 -174.18156 33552 ft 498 kts 271°
2026-04-21 10:54 54.41117 -174.29910 33548 ft 498 kts 271°
2026-04-21 10:54 54.42025 -174.41768 33554 ft 498 kts 271°
2026-04-21 10:55 54.42912 -174.53519 33543 ft 498 kts 271°
2026-04-21 10:55 54.43792 -174.65352 33537 ft 502 kts 270°
2026-04-21 10:56 54.44664 -174.77200 33525 ft 499 kts 270°
2026-04-21 10:56 54.45522 -174.89044 33532 ft 501 kts 270°
2026-04-21 10:57 54.46366 -175.00858 33520 ft 501 kts 270°
2026-04-21 10:57 54.47200 -175.12674 33520 ft 501 kts 270°
2026-04-21 10:58 54.48027 -175.24605 33517 ft 503 kts 270°
2026-04-21 10:58 54.48841 -175.36467 33512 ft 501 kts 270°
2026-04-21 10:59 54.49643 -175.48367 33514 ft 501 kts 270°
2026-04-21 10:59 54.50433 -175.60271 33520 ft 502 kts 270°
2026-04-21 11:00 54.51211 -175.72150 33517 ft 503 kts 269°
2026-04-21 11:00 54.51981 -175.84096 33515 ft 502 kts 269°
2026-04-21 11:01 54.52727 -175.95875 33523 ft 505 kts 270°
2026-04-21 11:01 54.53473 -176.07819 33518 ft 503 kts 270°
2026-04-21 11:02 54.54572 -176.25806 33513 ft 505 kts 270°
2026-04-21 11:02 54.55287 -176.37717 33507 ft 503 kts 270°
2026-04-21 11:03 54.55997 -176.49786 33502 ft 504 kts 270°
2026-04-21 11:03 54.56691 -176.61787 33493 ft 507 kts 270°
2026-04-21 11:04 54.57379 -176.73871 33497 ft 503 kts 269°
2026-04-21 11:04 54.58045 -176.85796 33485 ft 505 kts 269°
2026-04-21 11:05 54.58707 -176.97875 33495 ft 504 kts 269°
2026-04-21 11:05 54.59354 -177.09891 33493 ft 506 kts 269°
2026-04-21 11:06 54.59995 -177.22006 33492 ft 505 kts 269°
2026-04-21 11:06 54.60619 -177.34070 33479 ft 506 kts 269°
2026-04-21 11:07 54.61232 -177.46133 33474 ft 510 kts 269°
2026-04-21 11:07 54.61837 -177.58276 33479 ft 508 kts 269°
2026-04-21 11:08 54.62432 -177.70488 33494 ft 509 kts 268°
2026-04-21 11:08 54.63008 -177.82539 33493 ft 509 kts 268°
2026-04-21 11:09 54.63578 -177.94739 33484 ft 508 kts 268°
2026-04-21 11:09 54.64131 -178.06847 33457 ft 511 kts 268°
2026-04-21 11:10 54.64265 -178.19032 33502 ft 506 kts 264°
2026-04-21 11:10 54.64217 -178.31184 33445 ft 506 kts 263°
2026-04-21 11:11 54.64142 -178.43332 33500 ft 508 kts 263°
2026-04-21 11:11 54.64050 -178.55489 33461 ft 508 kts 263°
2026-04-21 11:12 54.63942 -178.67662 33480 ft 507 kts 263°
2026-04-21 11:12 54.63820 -178.79829 33479 ft 510 kts 263°
2026-04-21 11:13 54.63685 -178.92011 33450 ft 508 kts 263°
2026-04-21 11:13 54.63537 -179.04184 33455 ft 509 kts 263°
2026-04-21 11:14 54.63375 -179.16354 33425 ft 511 kts 263°
2026-04-21 11:14 54.63202 -179.28580 33448 ft 513 kts 263°
2026-04-21 11:15 54.63014 -179.40913 33433 ft 513 kts 263°
2026-04-21 11:15 54.62814 -179.53214 33418 ft 514 kts 262°
2026-04-21 11:16 54.62602 -179.65471 33424 ft 514 kts 263°
2026-04-21 11:16 54.62375 -179.77872 33432 ft 515 kts 263°
2026-04-21 11:17 54.62138 -179.90172 33432 ft 517 kts 263°
2026-04-21 11:17 54.61886 179.97464 33443 ft 518 kts 263°
2026-04-21 11:18 54.61623 179.85130 33406 ft 517 kts 263°
2026-04-21 11:18 54.61345 179.72720 33427 ft 518 kts 263°
2026-04-21 11:19 54.61056 179.60349 33418 ft 519 kts 263°
2026-04-21 11:19 54.60751 179.47865 33448 ft 518 kts 264°
2026-04-21 11:20 54.60435 179.35463 33435 ft 518 kts 263°
2026-04-21 11:20 54.60108 179.23100 33406 ft 519 kts 263°
2026-04-21 11:21 54.59766 179.10660 33389 ft 518 kts 263°
2026-04-21 11:21 54.59414 178.98320 33407 ft 519 kts 263°
2026-04-21 11:22 54.59045 178.85849 33408 ft 520 kts 263°
2026-04-21 11:22 54.58667 178.73480 33371 ft 519 kts 263°
2026-04-21 11:23 54.58274 178.61038 33399 ft 519 kts 263°
2026-04-21 11:23 54.57869 178.48666 33387 ft 520 kts 264°
2026-04-21 11:24 54.57452 178.36256 33396 ft 521 kts 264°
2026-04-21 11:24 54.57020 178.23820 33397 ft 521 kts 263°
2026-04-21 11:25 54.56574 178.11342 33378 ft 520 kts 263°
2026-04-21 11:25 54.56119 177.98952 33369 ft 519 kts 263°
2026-04-21 11:26 54.55653 177.86621 33392 ft 519 kts 263°
2026-04-21 11:26 54.55171 177.74216 33381 ft 518 kts 263°
2026-04-21 11:27 54.54680 177.61896 33385 ft 519 kts 263°
2026-04-21 11:27 54.54172 177.49495 33384 ft 519 kts 264°
2026-04-21 11:28 54.53655 177.37148 33397 ft 518 kts 264°
2026-04-21 11:28 54.53125 177.24805 33380 ft 517 kts 263°
2026-04-21 11:29 54.52584 177.12499 33386 ft 518 kts 263°
2026-04-21 11:29 54.52027 177.00142 33370 ft 518 kts 263°
2026-04-21 11:30 54.51461 176.87837 33390 ft 518 kts 263°
2026-04-21 11:30 54.50880 176.75499 33365 ft 517 kts 263°
2026-04-21 11:31 54.50285 176.63118 33366 ft 518 kts 264°
2026-04-21 11:31 54.49681 176.50835 33360 ft 518 kts 264°
2026-04-21 11:32 54.49065 176.38535 33373 ft 517 kts 264°
2026-04-21 11:32 54.48436 176.26260 33370 ft 517 kts 263°
2026-04-21 11:33 54.47792 176.13931 33366 ft 517 kts 263°
2026-04-21 11:33 54.47140 176.01674 33367 ft 518 kts 263°
2026-04-21 11:34 54.46471 175.89346 33378 ft 519 kts 263°
2026-04-21 11:34 54.45788 175.77000 33376 ft 518 kts 263°
2026-04-21 11:35 54.45095 175.64703 33375 ft 518 kts 263°
2026-04-21 11:35 54.44390 175.52431 33372 ft 518 kts 264°
2026-04-21 11:36 54.43673 175.40149 33379 ft 518 kts 264°
2026-04-21 11:36 54.42941 175.27843 33375 ft 518 kts 263°
2026-04-21 11:37 54.42201 175.15614 33380 ft 519 kts 263°
2026-04-21 11:37 54.41441 175.03267 33381 ft 520 kts 263°
2026-04-21 11:38 54.40671 174.90955 33377 ft 519 kts 263°
2026-04-21 11:38 54.39890 174.78664 33378 ft 518 kts 264°
2026-04-21 11:39 54.39097 174.66412 33374 ft 518 kts 264°
2026-04-21 11:39 54.38296 174.54211 33398 ft 518 kts 264°
2026-04-21 11:40 54.37479 174.41974 33378 ft 518 kts 264°
2026-04-21 11:40 54.36649 174.29713 33384 ft 519 kts 263°
2026-04-21 11:41 54.35801 174.17384 33401 ft 518 kts 263°
2026-04-21 11:41 54.34946 174.05154 33396 ft 518 kts 263°
2026-04-21 11:42 54.34081 173.92947 33394 ft 517 kts 263°
2026-04-21 11:42 54.33205 173.80777 33393 ft 517 kts 263°
2026-04-21 11:43 54.32320 173.68634 33405 ft 517 kts 263°
2026-04-21 11:43 54.31415 173.56415 33416 ft 517 kts 263°
2026-04-21 11:44 54.30500 173.44214 33407 ft 515 kts 263°
2026-04-21 11:44 54.29578 173.32103 33404 ft 516 kts 263°
2026-04-21 11:45 54.28642 173.19966 33422 ft 516 kts 263°
2026-04-21 11:45 54.27693 173.07822 33426 ft 516 kts 263°
2026-04-21 11:46 54.26728 172.95631 33428 ft 517 kts 263°
2026-04-21 11:46 54.25641 172.83594 33456 ft 515 kts 257°
2026-04-21 11:47 54.23828 172.71748 33459 ft 514 kts 255°
2026-04-21 11:47 54.21935 172.60016 33472 ft 513 kts 255°
2026-04-21 11:48 54.20014 172.48326 33482 ft 514 kts 255°
2026-04-21 11:48 54.18058 172.36581 33492 ft 514 kts 255°
2026-04-21 11:49 54.16093 172.24898 33493 ft 512 kts 254°
2026-04-21 11:49 54.14119 172.13260 33494 ft 512 kts 254°
2026-04-21 11:50 54.12133 172.01639 33494 ft 512 kts 254°
2026-04-21 11:50 54.10135 171.90033 33511 ft 512 kts 254°
2026-04-21 11:51 54.08123 171.78422 33518 ft 511 kts 255°
2026-04-21 11:51 54.06106 171.66861 33530 ft 511 kts 255°
2026-04-21 11:52 54.04077 171.55306 33552 ft 511 kts 255°
2026-04-21 11:52 54.02030 171.43726 33559 ft 511 kts 255°
2026-04-21 11:53 53.99981 171.32202 33573 ft 511 kts 253°
2026-04-21 11:53 53.97921 171.20697 33575 ft 510 kts 254°
2026-04-21 11:54 53.95846 171.09180 33582 ft 511 kts 254°
2026-04-21 11:54 53.93757 170.97658 33587 ft 511 kts 254°
2026-04-21 11:55 53.91668 170.86208 33579 ft 511 kts 254°
2026-04-21 11:55 53.89553 170.74683 33584 ft 511 kts 254°
2026-04-21 11:56 53.87448 170.63287 33590 ft 511 kts 254°
2026-04-21 11:56 53.85312 170.51796 33610 ft 511 kts 254°
2026-04-21 11:57 53.83174 170.40364 33609 ft 511 kts 254°
2026-04-21 11:57 53.81013 170.28874 33635 ft 511 kts 253°
2026-04-21 11:58 53.78855 170.17473 33634 ft 511 kts 253°
2026-04-21 11:58 53.76682 170.06061 33641 ft 510 kts 253°
2026-04-21 11:59 53.74500 169.94675 33652 ft 511 kts 253°
2026-04-21 11:59 53.72314 169.83328 33664 ft 512 kts 253°
2026-04-21 12:00 53.70107 169.71948 33682 ft 511 kts 254°
2026-04-21 12:00 53.67896 169.60606 33689 ft 510 kts 254°
2026-04-21 12:01 53.65664 169.49234 33696 ft 508 kts 254°
2026-04-21 12:01 53.63442 169.38002 33704 ft 508 kts 252°
2026-04-21 12:02 53.58731 169.21980 33698 ft 511 kts 244°
2026-04-21 12:03 53.55389 169.11482 33728 ft 510 kts 243°
2026-04-21 12:03 53.52039 169.01035 33735 ft 509 kts 244°
2026-04-21 12:04 53.48656 168.90544 33745 ft 509 kts 243°
2026-04-21 12:04 53.45281 168.80131 33759 ft 509 kts 244°
2026-04-21 12:05 53.41905 168.69765 33769 ft 509 kts 244°
2026-04-21 12:05 53.38524 168.59428 33778 ft 510 kts 244°
2026-04-21 12:06 53.35101 168.49014 33780 ft 509 kts 244°
2026-04-21 12:06 53.31676 168.38635 33779 ft 509 kts 244°
2026-04-21 12:07 53.28242 168.28285 33791 ft 510 kts 243°
2026-04-21 12:07 53.24814 168.18022 33800 ft 510 kts 244°
2026-04-21 12:08 53.21347 168.07686 33800 ft 510 kts 244°
2026-04-21 12:08 53.17873 167.97369 33802 ft 510 kts 244°
2026-04-21 12:09 53.14398 167.87094 33813 ft 510 kts 244°
2026-04-21 12:09 53.10898 167.76787 33818 ft 510 kts 244°
2026-04-21 12:10 53.07417 167.66579 33827 ft 510 kts 244°
2026-04-21 12:10 53.03902 167.56311 33821 ft 509 kts 244°
2026-04-21 12:11 53.00411 167.46156 33823 ft 509 kts 244°
2026-04-21 12:11 52.96906 167.36005 33829 ft 507 kts 244°
2026-04-21 12:12 52.93393 167.25870 33833 ft 509 kts 243°
2026-04-21 12:12 52.89871 167.15750 33836 ft 510 kts 243°
2026-04-21 12:13 52.86312 167.05566 33832 ft 509 kts 244°
2026-04-21 12:13 52.82764 166.95454 33831 ft 507 kts 244°
2026-04-21 12:14 52.79227 166.85416 33850 ft 506 kts 243°
2026-04-21 12:14 52.75694 166.75426 33860 ft 507 kts 243°
2026-04-21 12:15 52.72134 166.65402 33859 ft 506 kts 244°
2026-04-21 12:15 52.68576 166.55425 33872 ft 505 kts 244°
2026-04-21 12:16 52.65011 166.45464 33884 ft 505 kts 244°
2026-04-21 12:16 52.61467 166.35603 33894 ft 504 kts 244°
2026-04-21 12:17 52.57877 166.25655 33895 ft 503 kts 243°
2026-04-21 12:17 52.54315 166.15822 33913 ft 503 kts 243°
2026-04-21 12:18 52.50739 166.05989 33914 ft 501 kts 243°
2026-04-21 12:18 52.47184 165.96249 33910 ft 501 kts 243°
2026-04-21 12:19 52.43595 165.86458 33924 ft 500 kts 243°
2026-04-21 12:19 52.40014 165.76724 33918 ft 499 kts 243°
2026-04-21 12:20 52.36431 165.67024 33933 ft 498 kts 243°
2026-04-21 12:20 52.32857 165.57384 33938 ft 496 kts 243°
2026-04-21 12:21 52.29271 165.47748 33937 ft 496 kts 243°
2026-04-21 12:21 52.25704 165.38199 33949 ft 494 kts 243°
2026-04-21 12:22 52.22116 165.28630 33944 ft 495 kts 242°
2026-04-21 12:22 52.18520 165.19078 33962 ft 494 kts 242°
2026-04-21 12:23 52.14951 165.09631 33965 ft 492 kts 242°
2026-04-21 12:23 52.11354 165.00145 33966 ft 491 kts 243°
2026-04-21 12:24 52.07782 164.90762 33966 ft 490 kts 243°
2026-04-21 12:24 52.04207 164.81403 33963 ft 490 kts 243°
2026-04-21 12:25 52.00599 164.71994 33977 ft 489 kts 243°
2026-04-21 12:25 51.97016 164.62685 33969 ft 489 kts 243°
2026-04-21 12:26 51.93418 164.53368 33989 ft 489 kts 243°
2026-04-21 12:26 51.89814 164.44072 33990 ft 489 kts 243°
2026-04-21 12:27 51.86183 164.34741 33992 ft 487 kts 242°
2026-04-21 12:27 51.82568 164.25482 34000 ft 488 kts 242°
2026-04-21 12:28 51.78951 164.16255 33996 ft 487 kts 242°
2026-04-21 12:28 51.75318 164.07018 34008 ft 487 kts 242°
2026-04-21 12:29 51.71720 163.97903 34003 ft 485 kts 242°
2026-04-21 12:29 51.68065 163.88676 34006 ft 486 kts 242°
2026-04-21 12:30 51.64438 163.79553 34002 ft 485 kts 242°
2026-04-21 12:30 51.60809 163.70456 34006 ft 485 kts 242°
2026-04-21 12:31 51.57155 163.61328 34007 ft 484 kts 242°
2026-04-21 12:31 51.53536 163.52321 34012 ft 484 kts 242°
2026-04-21 12:32 51.49858 163.43198 34015 ft 484 kts 242°
2026-04-21 12:32 51.46207 163.34170 34020 ft 483 kts 242°
2026-04-21 12:33 51.42556 163.25180 34021 ft 482 kts 242°
2026-04-21 12:33 51.39126 163.16760 34031 ft 481 kts 242°
2026-04-21 12:34 51.35483 163.07844 34031 ft 482 kts 242°
2026-04-21 12:34 51.31811 162.98892 34036 ft 481 kts 242°
2026-04-21 12:35 51.28140 162.89973 34039 ft 480 kts 242°
2026-04-21 12:35 51.24478 162.81104 34040 ft 480 kts 242°
2026-04-21 12:36 51.20821 162.72281 34051 ft 479 kts 242°
2026-04-21 12:36 51.17141 162.63429 34055 ft 478 kts 242°
2026-04-21 12:37 51.13482 162.54658 34057 ft 476 kts 242°
2026-04-21 12:37 51.09822 162.45917 34058 ft 476 kts 243°
2026-04-21 12:38 51.06159 162.37195 34065 ft 474 kts 243°
2026-04-21 12:38 51.02474 162.28448 34073 ft 475 kts 242°
2026-04-21 12:39 50.98808 162.19781 34084 ft 473 kts 243°
2026-04-21 12:39 50.95125 162.11099 34094 ft 472 kts 243°
2026-04-21 12:40 50.91457 162.02481 34098 ft 473 kts 243°
2026-04-21 12:40 50.87803 161.93929 34089 ft 470 kts 243°
2026-04-21 12:41 50.84139 161.85376 34089 ft 469 kts 243°
2026-04-21 12:41 50.80470 161.76840 34090 ft 469 kts 243°
2026-04-21 12:42 50.76808 161.68349 34084 ft 469 kts 243°
2026-04-21 12:42 50.73148 161.59891 34088 ft 467 kts 243°
2026-04-21 12:43 50.69496 161.51474 34099 ft 469 kts 243°
2026-04-21 12:43 50.65823 161.43043 34090 ft 466 kts 243°
2026-04-21 12:44 50.62154 161.34647 34092 ft 465 kts 243°
2026-04-21 12:44 50.58488 161.26280 34111 ft 464 kts 243°
2026-04-21 12:45 50.54841 161.17986 34121 ft 464 kts 243°
2026-04-21 12:45 50.51173 161.09670 34114 ft 461 kts 243°
2026-04-21 12:46 50.47530 161.01436 34112 ft 460 kts 243°
2026-04-21 12:46 50.43881 160.93213 34114 ft 461 kts 243°
2026-04-21 12:47 50.40218 160.84988 34132 ft 459 kts 243°
2026-04-21 12:47 50.36553 160.76782 34119 ft 458 kts 243°
2026-04-21 12:48 50.32907 160.68640 34122 ft 459 kts 243°
2026-04-21 12:48 50.29245 160.60495 34116 ft 457 kts 243°
2026-04-21 12:49 50.25568 160.52338 34123 ft 458 kts 243°
2026-04-21 12:49 50.21904 160.44235 34124 ft 457 kts 244°
2026-04-21 12:50 50.18245 160.36175 34126 ft 457 kts 243°
2026-04-21 12:50 50.14555 160.28105 34141 ft 458 kts 243°
2026-04-21 12:51 50.10876 160.20088 34136 ft 456 kts 243°
2026-04-21 12:51 50.07192 160.12083 34142 ft 454 kts 243°
2026-04-21 12:52 50.03515 160.04112 34147 ft 454 kts 243°
2026-04-21 12:52 49.99808 159.96100 34149 ft 454 kts 243°
2026-04-21 12:53 49.96124 159.88164 34148 ft 456 kts 243°
2026-04-21 12:53 49.92450 159.80280 34141 ft 449 kts 243°
2026-04-21 12:54 49.88754 159.72360 34128 ft 452 kts 243°
2026-04-21 12:54 49.85077 159.64510 34115 ft 452 kts 243°
2026-04-21 12:55 49.81379 159.56638 34131 ft 452 kts 243°
2026-04-21 12:55 49.77685 159.48799 34125 ft 450 kts 243°
2026-04-21 12:56 49.74012 159.41025 34119 ft 450 kts 243°
2026-04-21 12:56 49.70316 159.33232 34136 ft 453 kts 241°
2026-04-21 12:57 49.66513 159.25461 34131 ft 451 kts 241°
2026-04-21 12:57 49.62736 159.17775 34138 ft 452 kts 241°
2026-04-21 12:58 49.58934 159.10051 34136 ft 452 kts 240°
2026-04-21 12:58 49.55127 159.02339 34133 ft 453 kts 240°
2026-04-21 12:59 49.51320 158.94646 34132 ft 453 kts 240°
2026-04-21 12:59 49.47499 158.86948 34132 ft 454 kts 240°
2026-04-21 13:00 49.43670 158.79256 34131 ft 453 kts 240°
2026-04-21 13:00 49.39910 158.71721 34131 ft 452 kts 240°
2026-04-21 13:01 49.36086 158.64079 34128 ft 453 kts 240°
2026-04-21 13:01 49.32264 158.56468 34128 ft 450 kts 240°
2026-04-21 13:02 49.28433 158.48854 34127 ft 451 kts 239°
2026-04-21 13:02 49.22663 158.37433 34126 ft 452 kts 239°
2026-04-21 13:03 49.18839 158.29889 34138 ft 455 kts 238°
2026-04-21 13:03 49.14988 158.22314 34136 ft 454 kts 238°
2026-04-21 13:04 49.11102 158.14696 34138 ft 453 kts 238°
2026-04-21 13:04 49.07246 158.07155 34132 ft 453 kts 238°
2026-04-21 13:05 49.03350 157.99554 34135 ft 455 kts 238°
2026-04-21 13:05 48.99467 157.92004 34134 ft 453 kts 238°
2026-04-21 13:06 48.95559 157.84425 34133 ft 455 kts 238°
2026-04-21 13:06 48.91673 157.76912 34130 ft 455 kts 238°
2026-04-21 13:07 48.87769 157.69385 34119 ft 454 kts 237°
2026-04-21 13:07 48.83858 157.61865 34119 ft 453 kts 237°
2026-04-21 13:08 48.79985 157.54440 34117 ft 451 kts 237°
2026-04-21 13:08 48.76091 157.46994 34111 ft 452 kts 237°
2026-04-21 13:09 48.72167 157.39511 34108 ft 452 kts 237°
2026-04-21 13:09 48.68260 157.32083 34115 ft 452 kts 236°
2026-04-21 13:10 48.64369 157.24704 34114 ft 451 kts 236°
2026-04-21 13:10 48.60448 157.17290 34104 ft 451 kts 236°
2026-04-21 13:11 48.56532 157.09904 34101 ft 452 kts 236°
2026-04-21 13:11 48.52593 157.02496 34090 ft 453 kts 235°
2026-04-21 13:12 48.48659 156.95119 34089 ft 451 kts 235°
2026-04-21 13:12 48.44725 156.87761 34089 ft 453 kts 235°
2026-04-21 13:13 48.40765 156.80376 34088 ft 450 kts 235°
2026-04-21 13:13 48.36832 156.73059 34088 ft 452 kts 234°
2026-04-21 13:14 48.32902 156.65770 34088 ft 451 kts 234°
2026-04-21 13:14 48.28928 156.58418 34086 ft 452 kts 234°
2026-04-21 13:15 48.24995 156.51163 34086 ft 451 kts 234°
2026-04-21 13:15 48.21026 156.43860 34086 ft 451 kts 234°
2026-04-21 13:16 48.17083 156.36624 34084 ft 451 kts 234°
2026-04-21 13:16 48.13094 156.29324 34092 ft 450 kts 233°
2026-04-21 13:17 48.09128 156.22086 34092 ft 449 kts 233°
2026-04-21 13:17 48.05190 156.14917 34091 ft 450 kts 233°
2026-04-21 13:18 48.01208 156.07690 34089 ft 448 kts 233°
2026-04-21 13:18 47.97238 156.00502 34080 ft 448 kts 233°
2026-04-21 13:19 47.93293 155.93379 34066 ft 448 kts 233°
2026-04-21 13:19 47.89312 155.86211 34066 ft 449 kts 233°
2026-04-21 13:20 47.85326 155.79051 34058 ft 448 kts 233°
2026-04-21 13:20 47.81354 155.71935 34058 ft 447 kts 233°
2026-04-21 13:21 47.77393 155.64857 34061 ft 447 kts 232°
2026-04-21 13:21 47.73409 155.57758 34052 ft 446 kts 232°
2026-04-21 13:22 47.69424 155.50676 34044 ft 446 kts 232°
2026-04-21 13:22 47.65440 155.43613 34043 ft 446 kts 232°
2026-04-21 13:23 47.61472 155.36598 34036 ft 446 kts 232°
2026-04-21 13:23 47.57482 155.29562 34046 ft 447 kts 231°
2026-04-21 13:24 47.53508 155.22571 34040 ft 447 kts 231°
2026-04-21 13:24 47.49520 155.15575 34034 ft 445 kts 231°
2026-04-21 13:25 47.45516 155.08569 34032 ft 446 kts 231°
2026-04-21 13:25 47.41517 155.01590 34031 ft 446 kts 230°
2026-04-21 13:26 47.37531 154.94652 34019 ft 442 kts 230°
2026-04-21 13:26 47.33543 154.87727 34023 ft 445 kts 230°
2026-04-21 13:27 47.29525 154.80768 34013 ft 445 kts 230°
2026-04-21 13:27 47.25515 154.73840 34011 ft 444 kts 230°
2026-04-21 13:28 47.21542 154.66995 34010 ft 444 kts 230°
2026-04-21 13:28 47.17529 154.60097 33989 ft 443 kts 230°
2026-04-21 13:29 47.13532 154.53245 33986 ft 441 kts 230°
2026-04-21 13:29 47.09517 154.46379 33988 ft 444 kts 230°
2026-04-21 13:30 47.05493 154.39516 33968 ft 442 kts 230°
2026-04-21 13:30 47.01525 154.32764 33968 ft 441 kts 229°
2026-04-21 13:31 46.97496 154.25926 33962 ft 441 kts 229°
2026-04-21 13:31 46.93495 154.19153 33956 ft 440 kts 229°
2026-04-21 13:32 46.89477 154.12367 33952 ft 441 kts 229°
2026-04-21 13:32 46.85452 154.05588 33952 ft 440 kts 229°
2026-04-21 13:33 46.81444 153.98853 33942 ft 440 kts 228°
2026-04-21 13:33 46.77447 153.92152 33926 ft 441 kts 228°
2026-04-21 13:34 46.73432 153.85439 33904 ft 439 kts 228°
2026-04-21 13:34 46.69428 153.78761 33897 ft 437 kts 228°
2026-04-21 13:35 46.65416 153.72086 33898 ft 438 kts 227°
2026-04-21 13:35 46.61410 153.65436 33894 ft 437 kts 227°
2026-04-21 13:36 46.57390 153.58778 33876 ft 437 kts 227°
2026-04-21 13:36 46.53377 153.52151 33876 ft 438 kts 227°
2026-04-21 13:37 46.49374 153.45555 33873 ft 439 kts 227°
2026-04-21 13:37 46.45363 153.38962 33871 ft 436 kts 227°
2026-04-21 13:38 46.41331 153.32352 33860 ft 436 kts 226°
2026-04-21 13:38 46.37281 153.25726 33850 ft 437 kts 226°
2026-04-21 13:39 46.33239 153.19132 33836 ft 440 kts 226°
2026-04-21 13:39 46.29193 153.12544 33838 ft 438 kts 226°
2026-04-21 13:40 46.25135 153.05954 33819 ft 438 kts 226°
2026-04-21 13:40 46.21070 152.99383 33827 ft 438 kts 225°
2026-04-21 13:41 46.17009 152.92891 33819 ft 438 kts 225°
2026-04-21 13:41 46.12906 152.86350 33815 ft 437 kts 225°
2026-04-21 13:42 46.08831 152.79869 33810 ft 437 kts 225°
2026-04-21 13:42 46.04748 152.73389 33788 ft 439 kts 225°
2026-04-21 13:43 46.00645 152.66895 33792 ft 437 kts 225°
2026-04-21 13:43 45.96561 152.60446 33780 ft 436 kts 225°
2026-04-21 13:44 45.92480 152.54018 33760 ft 435 kts 225°
2026-04-21 13:44 45.88394 152.47594 33761 ft 433 kts 224°
2026-04-21 13:45 45.84359 152.41267 33754 ft 432 kts 225°
2026-04-21 13:45 45.80271 152.34872 33750 ft 433 kts 224°
2026-04-21 13:46 45.76221 152.28552 33740 ft 432 kts 224°
2026-04-21 13:46 45.72171 152.22244 33733 ft 430 kts 224°
2026-04-21 13:47 45.68139 152.15982 33726 ft 431 kts 224°
2026-04-21 13:47 45.64077 152.09686 33721 ft 430 kts 224°
2026-04-21 13:48 45.60027 152.03422 33722 ft 431 kts 224°
2026-04-21 13:48 45.55954 151.97137 33704 ft 429 kts 223°
2026-04-21 13:49 45.51928 151.90941 33720 ft 430 kts 224°
2026-04-21 13:49 45.47877 151.84718 33700 ft 430 kts 224°
2026-04-21 13:50 45.43791 151.78459 33691 ft 430 kts 223°
2026-04-21 13:50 45.39751 151.72281 33695 ft 427 kts 223°
2026-04-21 13:51 45.35688 151.66083 33668 ft 425 kts 224°
2026-04-21 13:51 45.31657 151.59949 33640 ft 427 kts 224°
2026-04-21 13:52 45.27603 151.53792 33673 ft 428 kts 223°
2026-04-21 13:52 45.23541 151.47636 33655 ft 427 kts 224°
2026-04-21 13:53 45.19485 151.41504 33634 ft 426 kts 224°
2026-04-21 13:53 45.15433 151.35393 33656 ft 425 kts 224°
2026-04-21 13:54 45.11401 151.29323 33644 ft 423 kts 223°
2026-04-21 13:54 45.07369 151.23268 33624 ft 424 kts 223°
2026-04-21 13:55 45.03329 151.17215 33624 ft 423 kts 223°
2026-04-21 13:55 44.99281 151.11163 33623 ft 424 kts 223°
2026-04-21 13:56 44.95251 151.05148 33612 ft 423 kts 223°
2026-04-21 13:56 44.91226 150.99158 33606 ft 420 kts 223°
2026-04-21 13:57 44.87186 150.93158 33618 ft 424 kts 223°
2026-04-21 13:57 44.83157 150.87184 33629 ft 420 kts 224°
2026-04-21 13:58 44.79097 150.81181 33617 ft 420 kts 223°
2026-04-21 13:58 44.75060 150.75224 33632 ft 424 kts 224°
2026-04-21 13:59 44.71000 150.69244 33646 ft 423 kts 224°
2026-04-21 13:59 44.66946 150.63289 33644 ft 424 kts 224°
2026-04-21 14:00 44.62865 150.57304 33640 ft 427 kts 224°
2026-04-21 14:00 44.58771 150.51314 33642 ft 424 kts 224°
2026-04-21 14:01 44.54696 150.45366 33636 ft 424 kts 224°
2026-04-21 14:01 44.50584 150.39377 33634 ft 426 kts 224°
2026-04-21 14:02 44.46481 150.33412 33631 ft 427 kts 223°
2026-04-21 14:03 44.40300 150.24452 33628 ft 426 kts 223°
2026-04-21 14:03 44.36167 150.18478 33638 ft 430 kts 223°
2026-04-21 14:04 44.32001 150.12468 33640 ft 429 kts 223°
2026-04-21 14:04 44.27844 150.06483 33650 ft 430 kts 223°
2026-04-21 14:05 44.23683 150.00510 33660 ft 431 kts 224°
2026-04-21 14:05 44.19529 149.94554 33657 ft 430 kts 224°
2026-04-21 14:06 44.15342 149.88567 33658 ft 430 kts 224°
2026-04-21 14:06 44.11177 149.82623 33638 ft 429 kts 224°
2026-04-21 14:07 44.06992 149.76663 33649 ft 431 kts 224°
2026-04-21 14:07 44.02813 149.70728 33643 ft 432 kts 224°
2026-04-21 14:08 43.98601 149.64755 33640 ft 433 kts 224°
2026-04-21 14:08 43.94391 149.58798 33653 ft 434 kts 224°
2026-04-21 14:09 43.90187 149.52863 33662 ft 431 kts 225°
2026-04-21 14:09 43.85979 149.46936 33663 ft 433 kts 225°
2026-04-21 14:10 43.81738 149.40974 33678 ft 435 kts 225°
2026-04-21 14:10 43.77503 149.35034 33671 ft 433 kts 225°
2026-04-21 14:11 43.73286 149.29131 33696 ft 432 kts 224°
2026-04-21 14:11 43.69058 149.23225 33679 ft 436 kts 224°
2026-04-21 14:12 43.64783 149.17267 33687 ft 435 kts 225°
2026-04-21 14:12 43.60519 149.11337 33703 ft 435 kts 225°
2026-04-21 14:13 43.56256 149.05421 33693 ft 436 kts 225°
2026-04-21 14:13 43.51996 148.99521 33699 ft 435 kts 225°
2026-04-21 14:14 43.47725 148.93620 33706 ft 437 kts 225°
2026-04-21 14:14 43.43434 148.87703 33702 ft 437 kts 225°
2026-04-21 14:15 43.39171 148.81838 33699 ft 436 kts 225°
2026-04-21 14:15 43.34842 148.75893 33702 ft 436 kts 225°
2026-04-21 14:16 43.30553 148.70016 33703 ft 438 kts 225°
2026-04-21 14:16 43.26257 148.64142 33696 ft 436 kts 225°
2026-04-21 14:17 43.21930 148.58238 33694 ft 440 kts 225°
2026-04-21 14:17 43.17600 148.52344 33710 ft 441 kts 226°
2026-04-21 14:18 43.13259 148.46445 33711 ft 440 kts 226°
2026-04-21 14:18 43.08902 148.40538 33720 ft 442 kts 226°
2026-04-21 14:19 43.04539 148.34636 33725 ft 441 kts 225°
2026-04-21 14:19 43.00189 148.28763 33736 ft 441 kts 225°
2026-04-21 14:20 42.95803 148.22855 33730 ft 441 kts 225°
2026-04-21 14:20 42.91442 148.16992 33728 ft 441 kts 225°
2026-04-21 14:21 42.87071 148.11128 33724 ft 441 kts 226°
2026-04-21 14:21 42.82717 148.05299 33731 ft 441 kts 226°
2026-04-21 14:22 42.78314 147.99417 33728 ft 443 kts 226°
2026-04-21 14:22 42.73925 147.93567 33739 ft 443 kts 226°
2026-04-21 14:23 42.69517 147.87701 33733 ft 442 kts 226°
2026-04-21 14:23 42.65128 147.81876 33738 ft 440 kts 226°
2026-04-21 14:24 42.60736 147.76057 33734 ft 441 kts 227°
2026-04-21 14:24 42.56354 147.70264 33735 ft 440 kts 227°
2026-04-21 14:25 42.51971 147.64482 33748 ft 438 kts 227°
2026-04-21 14:25 42.47608 147.58737 33741 ft 440 kts 227°
2026-04-21 14:26 42.43214 147.52965 33748 ft 438 kts 227°
2026-04-21 14:26 42.38868 147.47266 33742 ft 438 kts 227°
2026-04-21 14:27 42.34501 147.41542 33754 ft 436 kts 228°
2026-04-21 14:27 42.30132 147.35825 33757 ft 438 kts 228°
2026-04-21 14:28 42.25769 147.30129 33768 ft 436 kts 227°
2026-04-21 14:28 42.21399 147.24432 33775 ft 438 kts 228°
2026-04-21 14:29 42.17018 147.18736 33782 ft 437 kts 228°
2026-04-21 14:29 42.12664 147.13086 33792 ft 434 kts 228°
2026-04-21 14:30 42.08304 147.07437 33784 ft 436 kts 228°
2026-04-21 14:30 42.03920 147.01772 33782 ft 433 kts 228°
2026-04-21 14:31 41.99544 146.96126 33778 ft 437 kts 228°
2026-04-21 14:31 41.95188 146.90520 33775 ft 434 kts 228°
2026-04-21 14:32 41.90819 146.84904 33774 ft 434 kts 228°
2026-04-21 14:32 41.86491 146.79344 33790 ft 432 kts 229°
2026-04-21 14:33 41.82117 146.73730 33788 ft 433 kts 229°
2026-04-21 14:33 41.77763 146.68156 33791 ft 435 kts 229°
2026-04-21 14:34 41.73405 146.62592 33795 ft 431 kts 229°
2026-04-21 14:34 41.69067 146.57060 33794 ft 431 kts 229°
2026-04-21 14:35 41.64717 146.51524 33793 ft 433 kts 230°
2026-04-21 14:35 41.60362 146.45993 33796 ft 433 kts 230°
2026-04-21 14:36 41.55996 146.40460 33804 ft 430 kts 230°
2026-04-21 14:36 41.51654 146.34967 33803 ft 432 kts 229°
2026-04-21 14:37 41.47304 146.29475 33832 ft 431 kts 230°
2026-04-21 14:37 41.42932 146.23965 33830 ft 432 kts 230°
2026-04-21 14:38 41.38584 146.18497 33825 ft 431 kts 229°
2026-04-21 14:38 41.34224 146.13023 33838 ft 432 kts 230°
2026-04-21 14:39 41.29875 146.07576 33850 ft 431 kts 230°
2026-04-21 14:39 41.25481 146.02081 33838 ft 432 kts 231°
2026-04-21 14:40 41.21119 145.96637 33842 ft 430 kts 231°
2026-04-21 14:40 41.16719 145.91156 33853 ft 431 kts 231°
2026-04-21 14:41 41.12362 145.85741 33853 ft 430 kts 231°
2026-04-21 14:41 41.07993 145.80318 33847 ft 432 kts 231°
2026-04-21 14:42 41.03595 145.74872 33838 ft 432 kts 231°
2026-04-21 14:42 40.99220 145.69464 33844 ft 430 kts 231°
2026-04-21 14:43 40.94836 145.64058 33836 ft 428 kts 232°
2026-04-21 14:43 40.90465 145.58676 33860 ft 427 kts 232°
2026-04-21 14:44 40.86135 145.53354 33850 ft 424 kts 232°
2026-04-21 14:44 40.81790 145.48021 33841 ft 426 kts 232°
2026-04-21 14:45 40.77435 145.42688 33874 ft 429 kts 232°
2026-04-21 14:45 40.73130 145.37431 33870 ft 421 kts 233°
2026-04-21 14:46 40.68812 145.32159 33898 ft 423 kts 232°
2026-04-21 14:46 40.64492 145.26898 33890 ft 424 kts 232°
2026-04-21 14:47 40.60182 145.21661 33891 ft 421 kts 233°
2026-04-21 14:47 40.55870 145.16431 33892 ft 420 kts 232°
2026-04-21 14:48 40.51561 145.11211 33911 ft 420 kts 232°
2026-04-21 14:48 40.47303 145.06068 33911 ft 414 kts 233°
2026-04-21 14:49 40.43048 145.00934 33910 ft 413 kts 234°
2026-04-21 14:49 40.38787 144.95798 33921 ft 415 kts 234°
2026-04-21 14:50 40.35257 144.91554 33904 ft 411 kts 233°
2026-04-21 14:50 40.30330 144.85638 33917 ft 411 kts 234°
2026-04-21 14:51 40.26148 144.80631 33926 ft 407 kts 233°
2026-04-21 14:51 40.21975 144.75635 33867 ft 407 kts 234°
2026-04-21 14:52 40.17778 144.70622 33901 ft 405 kts 233°
2026-04-21 14:52 40.13655 144.65707 33917 ft 405 kts 234°
2026-04-21 14:53 40.09516 144.60786 33913 ft 400 kts 236°
2026-04-21 14:53 40.05371 144.55859 33912 ft 401 kts 236°
2026-04-21 14:54 40.01250 144.50970 33917 ft 400 kts 234°
2026-04-21 14:54 39.97104 144.46060 33928 ft 402 kts 235°
2026-04-21 14:55 39.92999 144.41213 33925 ft 401 kts 236°
2026-04-21 14:55 39.88836 144.36296 33920 ft 403 kts 236°
2026-04-21 14:56 39.84706 144.31439 33952 ft 398 kts 236°
2026-04-21 14:56 39.80606 144.26614 33931 ft 398 kts 234°
2026-04-21 14:57 39.76501 144.21793 33939 ft 401 kts 234°
2026-04-21 14:57 39.72371 144.16952 33954 ft 401 kts 236°
2026-04-21 14:58 39.68249 144.12135 33935 ft 395 kts 235°
2026-04-21 14:58 39.64148 144.07342 33973 ft 397 kts 236°
2026-04-21 14:59 39.60083 144.02606 33937 ft 394 kts 236°
2026-04-21 14:59 39.55977 143.97819 33963 ft 399 kts 236°
2026-04-21 15:00 39.51866 143.93051 33967 ft 391 kts 236°
2026-04-21 15:00 39.47815 143.88347 33966 ft 393 kts 237°
2026-04-21 15:01 39.43772 143.83664 33948 ft 389 kts 236°
2026-04-21 15:01 39.39763 143.79028 33959 ft 387 kts 236°
2026-04-21 15:02 39.35792 143.74448 33943 ft 379 kts 236°
2026-04-21 15:02 39.31813 143.69852 33952 ft 385 kts 236°
2026-04-21 15:03 39.27806 143.65236 33963 ft 387 kts 236°
2026-04-21 15:03 39.23851 143.60700 33964 ft 379 kts 236°
2026-04-21 15:04 39.19922 143.56189 33967 ft 380 kts 237°
2026-04-21 15:04 39.15963 143.51654 33953 ft 375 kts 236°
2026-04-21 15:05 39.12071 143.47201 33965 ft 376 kts 236°
2026-04-21 15:05 39.06235 143.40540 33963 ft 374 kts 237°
2026-04-21 15:06 39.02319 143.36078 33958 ft 373 kts 237°
2026-04-21 15:06 38.98483 143.31706 33989 ft 380 kts 235°
2026-04-21 15:07 38.94537 143.27223 33980 ft 384 kts 236°
2026-04-21 15:07 38.90530 143.22685 33982 ft 379 kts 236°
2026-04-21 15:08 38.86890 143.18012 33983 ft 370 kts 240°
2026-04-21 15:08 38.83282 143.13226 33970 ft 371 kts 238°
2026-04-21 15:09 38.79670 143.08487 33995 ft 375 kts 238°
2026-04-21 15:09 38.76012 143.03714 33981 ft 373 kts 238°
2026-04-21 15:10 38.72370 142.98970 33975 ft 376 kts 237°
2026-04-21 15:10 38.68722 142.94234 33973 ft 373 kts 238°
2026-04-21 15:11 38.65035 142.89442 33982 ft 381 kts 237°
2026-04-21 15:11 38.61302 142.84611 33977 ft 383 kts 238°
2026-04-21 15:12 38.57559 142.79776 33973 ft 382 kts 238°
2026-04-21 15:12 38.53793 142.74911 33970 ft 386 kts 238°
2026-04-21 15:13 38.50024 142.70062 33980 ft 380 kts 237°
2026-04-21 15:13 38.46287 142.65250 33976 ft 383 kts 236°
2026-04-21 15:14 38.42518 142.60406 33968 ft 382 kts 237°
2026-04-21 15:14 38.38747 142.55568 33969 ft 385 kts 237°
2026-04-21 15:15 38.35008 142.50786 33981 ft 381 kts 237°
2026-04-21 15:15 38.31260 142.45984 33982 ft 383 kts 237°
2026-04-21 15:16 38.27508 142.41080 33984 ft 387 kts 237°
2026-04-21 15:16 38.23699 142.36112 33977 ft 388 kts 236°
2026-04-21 15:17 38.20016 142.31319 34009 ft 391 kts 236°
2026-04-21 15:17 38.16259 142.26439 34015 ft 389 kts 236°
2026-04-21 15:18 38.12487 142.21545 34004 ft 392 kts 236°
2026-04-21 15:18 38.08683 142.16625 34008 ft 388 kts 236°
2026-04-21 15:19 38.04858 142.11675 34018 ft 391 kts 236°
2026-04-21 15:19 38.01058 142.06773 34012 ft 390 kts 236°
2026-04-21 15:20 37.97244 142.01855 34005 ft 393 kts 236°
2026-04-21 15:20 37.93372 141.96875 34012 ft 394 kts 236°
2026-04-21 15:21 37.89548 141.91963 34000 ft 395 kts 236°
2026-04-21 15:21 37.85731 141.87073 34004 ft 389 kts 236°
2026-04-21 15:22 37.81910 141.82176 34000 ft 394 kts 237°
2026-04-21 15:22 37.78040 141.77225 34003 ft 394 kts 237°
2026-04-21 15:23 37.74184 141.72304 33997 ft 397 kts 236°
2026-04-21 15:23 37.70282 141.67331 34005 ft 397 kts 236°
2026-04-21 15:24 37.66406 141.62401 34004 ft 396 kts 236°
2026-04-21 15:24 37.62519 141.57460 34000 ft 399 kts 237°
2026-04-21 15:25 37.58590 141.52480 34003 ft 396 kts 236°
2026-04-21 15:25 37.54704 141.47559 33999 ft 397 kts 237°
2026-04-21 15:26 37.50784 141.42596 33999 ft 401 kts 237°
2026-04-21 15:26 37.46875 141.37666 34004 ft 397 kts 236°
2026-04-21 15:27 37.42992 141.32773 34021 ft 395 kts 236°
2026-04-21 15:27 37.39536 141.28420 34026 ft 398 kts 235°
2026-04-21 15:28 37.35823 141.23756 34028 ft 396 kts 237°
2026-04-21 15:28 37.31888 141.18814 34026 ft 399 kts 237°
2026-04-21 15:29 37.27969 141.13905 34022 ft 396 kts 235°
2026-04-21 15:29 37.24057 141.09016 34022 ft 392 kts 237°
2026-04-21 15:30 37.20150 141.04129 34028 ft 399 kts 237°
2026-04-21 15:30 37.16175 140.99171 34026 ft 399 kts 237°
2026-04-21 15:31 37.12593 140.94038 34021 ft 392 kts 242°
2026-04-21 15:31 37.09188 140.88709 34014 ft 389 kts 242°
2026-04-21 15:32 37.05766 140.83363 34034 ft 396 kts 242°
2026-04-21 15:32 37.02334 140.78030 34011 ft 386 kts 241°
2026-04-21 15:33 36.98959 140.72788 34031 ft 391 kts 242°
2026-04-21 15:33 36.95552 140.67513 34026 ft 386 kts 242°
2026-04-21 15:34 36.92158 140.62259 34023 ft 390 kts 241°
2026-04-21 15:34 36.88732 140.56969 34021 ft 390 kts 241°
2026-04-21 15:35 36.85396 140.51823 34017 ft 391 kts 241°